ECMWFFLT1_sfc_dewp_000.txt.gz
Dewpoint
59 62 64 64 64 65 67 68 68 69 69 68 67 65 65 65 65 65 63 64 64 65 65 64 63 63 61 61 62 62 63 64 64 62 61 62 63 64 64 63 64 65 64 63 64 63 64 65 64 63 64 64 64 64 65 65 65 64 64 65 65 65 67
58 61 62 62 64 65 67 69 68 67 69 68 66 66 65 66 66 63 64 65 65 64 65 64 64 64 62 62 63 64 63 63 63 63 63 63 63 63 63 64 65 65 64 64 64 64 64 63 63 63 63 63 63 64 64 64 65 64 63 64 63 64 66
60 61 61 62 63 64 67 68 68 66 67 65 64 64 64 67 66 65 64 64 65 65 65 65 65 64 64 64 63 63 63 62 61 61 61 60 60 61 63 65 64 64 63 64 64 63 63 63 63 64 63 63 63 63 63 64 64 63 64 64 64 63 64
62 61 62 63 66 66 66 67 67 65 64 63 62 64 65 68 66 65 65 64 64 65 65 66 65 65 65 64 64 63 63 63 62 61 61 61 60 61 63 64 64 63 62 62 62 62 63 64 63 63 64 63 63 63 62 63 63 64 64 64 63 62 63
64 63 62 62 62 64 65 65 65 64 61 60 63 65 67 67 65 64 64 64 63 64 64 65 64 64 66 65 63 62 62 62 62 63 62 61 62 63 63 63 63 63 62 63 63 63 64 64 62 62 62 64 63 61 62 62 63 64 64 65 64 65 63
63 64 62 61 62 64 65 63 61 58 58 58 62 65 65 63 60 59 62 65 64 64 65 66 65 66 65 64 64 63 64 63 63 63 62 62 61 61 61 62 62 63 62 62 62 62 62 63 63 63 62 61 61 62 62 62 62 62 64 65 66 66 62
63 65 62 61 62 63 63 60 56 57 58 59 62 65 62 58 57 56 58 63 63 64 64 64 64 63 64 63 64 64 63 62 63 62 62 61 61 61 62 62 62 62 63 63 63 63 62 63 64 64 64 65 65 65 65 65 64 64 65 66 65 64 64
63 64 63 61 60 59 59 60 58 57 59 60 62 61 57 57 57 55 57 57 58 57 58 59 62 64 65 64 63 63 63 62 62 61 61 60 60 61 62 62 61 62 63 62 63 63 62 64 63 64 64 64 65 66 67 67 65 64 65 64 66 65 64
64 65 63 60 59 59 59 60 60 60 62 63 64 62 60 59 56 57 58 57 58 58 57 54 57 62 65 64 63 63 63 63 62 62 61 60 60 58 57 56 59 60 61 61 61 62 63 63 63 64 65 65 65 67 68 67 65 64 64 65 65 65 64
65 65 65 61 61 60 61 62 62 64 65 66 66 64 61 60 60 59 59 57 56 57 58 58 58 58 63 64 63 63 63 63 62 61 59 57 58 58 57 56 57 58 59 60 60 61 63 64 64 65 66 66 66 67 67 66 66 65 63 64 64 64 65
64 67 66 64 63 63 64 64 65 67 68 68 67 65 65 65 64 62 62 58 55 55 57 60 61 60 61 61 61 62 63 63 61 60 59 59 56 57 55 53 54 57 59 60 61 63 63 63 64 65 66 66 66 66 66 65 64 65 65 65 65 64 63
65 67 68 67 66 65 65 66 68 69 69 69 67 66 68 68 67 65 64 63 58 56 58 59 60 60 60 58 59 62 62 62 61 59 59 58 58 57 58 58 59 57 54 56 55 57 56 58 59 63 65 66 65 66 66 66 66 66 66 64 64 64 64
66 68 68 67 67 66 67 69 69 69 69 68 66 67 68 67 66 64 66 65 60 59 60 62 63 63 61 59 58 61 61 60 60 59 58 58 58 59 57 56 54 54 56 55 55 54 55 57 58 59 63 65 65 64 64 65 66 66 66 66 64 63 63
66 67 68 68 67 67 67 69 69 69 69 68 67 67 67 66 65 65 67 65 61 60 59 59 63 64 63 61 61 62 60 60 60 59 59 59 60 59 59 59 59 60 59 57 55 52 54 54 57 57 58 59 61 64 65 66 66 66 66 66 64 63 63
64 64 66 66 67 68 68 68 69 69 68 68 67 67 66 64 65 66 67 62 63 59 60 63 63 64 62 62 63 63 62 61 60 59 59 59 60 60 60 60 60 60 58 57 56 55 54 56 57 58 59 60 61 64 66 65 65 66 65 64 62 62 62
61 63 64 65 66 67 68 68 69 69 69 69 67 67 65 66 67 66 65 62 60 63 61 63 64 64 63 61 62 63 62 61 61 61 60 60 60 61 61 59 59 58 57 57 55 56 57 59 60 58 59 59 60 62 65 65 66 64 63 61 62 62 62
61 61 62 64 66 66 67 68 68 69 69 68 67 67 66 66 66 66 58 57 57 61 62 62 65 65 63 63 63 63 62 61 61 61 60 60 60 60 61 61 59 58 57 57 58 57 60 59 59 57 57 57 59 61 64 64 65 63 60 60 61 63 62
59 61 62 63 65 66 67 67 68 68 68 67 67 65 65 65 62 62 58 57 58 56 60 63 64 63 63 63 63 62 61 60 60 60 59 59 60 61 61 60 59 58 58 57 56 57 57 57 58 59 59 59 60 61 63 63 63 60 60 60 60 60 64
59 61 62 63 64 65 65 65 66 67 66 67 64 63 62 64 59 61 60 60 60 61 60 61 61 62 62 62 62 62 61 61 60 59 60 60 60 61 60 60 59 57 56 55 56 56 57 58 57 58 58 59 59 59 60 60 62 59 59 59 59 59 62
59 60 61 62 63 64 65 65 65 66 65 66 63 56 57 59 58 61 59 58 60 61 63 63 61 60 61 62 61 61 60 59 59 59 59 60 60 61 61 59 58 57 55 54 56 56 56 56 57 57 58 57 57 58 59 61 60 60 59 58 58 59 60
59 60 62 62 63 63 65 66 67 66 66 62 56 56 57 57 59 61 58 58 58 61 64 63 60 60 60 59 59 60 60 59 59 59 60 61 61 61 61 59 57 56 55 53 53 54 56 56 56 57 57 56 55 55 55 56 60 59 59 58 57 57 59
57 59 60 61 63 64 66 66 66 66 64 60 57 55 55 57 57 55 55 56 57 60 61 60 60 59 60 58 58 58 59 59 59 60 62 61 61 61 60 57 56 56 55 56 55 56 55 56 57 58 58 57 56 55 57 54 59 58 58 57 57 57 64
54 57 59 62 62 64 68 67 67 67 68 65 59 58 56 57 56 56 55 55 56 58 57 57 58 59 59 58 57 57 57 58 58 59 59 59 59 60 58 56 55 54 55 56 55 53 52 54 52 56 59 60 60 57 57 57 59 56 56 56 56 57 62
55 58 60 60 64 66 68 67 66 69 63 58 61 59 58 58 56 57 57 56 56 54 54 55 56 57 58 56 57 57 59 59 59 58 58 59 59 58 56 54 55 54 57 55 53 52 53 54 51 53 59 58 57 56 59 55 55 54 53 53 55 59 63
55 56 60 61 62 65 65 67 67 64 64 62 61 60 62 62 57 57 59 58 54 52 52 55 56 56 55 56 57 58 59 58 58 58 57 58 57 57 55 56 56 55 58 57 56 57 61 58 58 59 61 54 52 57 58 58 56 52 53 53 54 59 65
60 60 61 63 64 66 68 68 68 63 57 62 64 64 66 64 58 58 57 55 53 52 53 56 57 57 56 56 57 58 60 59 59 59 59 58 58 59 59 59 57 56 55 55 53 55 57 60 58 58 59 59 59 59 54 57 60 57 53 53 53 54 65
61 61 62 61 62 66 65 66 68 64 65 64 67 65 66 63 61 59 60 59 58 56 55 56 57 57 56 57 59 59 59 58 58 58 57 57 59 61 59 58 56 56 59 57 54 57 58 59 58 58 59 58 58 57 59 59 53 54 55 53 53 54 56
59 60 60 61 64 65 65 63 65 64 58 66 66 64 65 67 66 65 64 62 60 59 55 57 57 57 59 63 62 59 58 58 59 58 57 58 63 61 59 59 59 56 55 56 59 59 59 59 59 59 59 60 58 60 60 59 60 62 59 55 53 52 54
61 60 59 62 63 63 62 64 64 60 54 52 52 64 67 67 67 66 65 64 64 59 57 58 60 65 65 62 60 60 59 59 59 59 59 63 61 59 58 60 59 58 59 59 60 60 59 60 59 58 56 56 57 58 58 61 62 60 60 57 56 54 53
62 61 60 57 58 61 59 64 64 62 57 50 61 65 66 66 66 66 66 66 65 64 64 67 67 65 60 59 59 57 56 57 58 60 62 61 61 60 59 58 58 57 59 60 58 58 58 59 58 58 57 55 57 57 60 62 62 61 60 62 58 54 51
60 61 59 56 51 60 60 60 64 63 63 65 67 66 66 65 65 65 66 66 66 67 67 67 64 60 59 57 57 57 57 57 58 59 59 60 59 59 57 57 57 56 59 58 55 56 57 57 57 57 55 56 57 60 58 58 61 61 61 60 59 55 51
62 61 60 61 63 63 62 61 61 63 65 65 64 66 66 66 64 65 66 65 67 67 65 64 62 59 59 56 56 56 58 57 56 58 59 59 57 57 57 57 56 54 56 56 55 56 57 57 58 58 56 56 57 58 57 59 60 62 61 58 58 56 55
62 61 61 61 63 62 61 60 58 60 61 62 64 63 59 62 63 64 65 66 67 63 63 62 60 59 58 57 56 59 59 56 52 52 56 59 57 55 55 54 54 55 55 54 52 54 55 56 56 57 57 57 57 59 57 56 60 61 58 57 56 56 57
63 63 64 65 64 61 60 59 58 57 59 60 62 63 62 58 61 62 63 62 58 57 60 60 59 58 57 57 57 57 58 55 53 54 52 53 54 51 52 57 58 59 54 53 53 54 55 55 55 55 56 55 54 55 55 54 56 57 55 54 54 54 54
61 62 62 62 63 64 65 64 63 64 62 63 63 63 61 61 59 57 62 58 57 61 59 59 57 58 57 56 55 57 56 55 57 55 54 55 57 54 54 58 55 54 57 61 59 58 55 55 54 55 53 52 54 58 55 56 55 55 48 49 46 47 49
62 62 64 65 66 67 66 65 65 64 64 64 62 61 61 62 61 59 55 57 60 61 61 61 59 57 52 54 54 52 53 55 53 54 54 51 50 53 57 52 44 49 58 56 51 48 44 47 56 53 54 54 56 57 54 53 52 46 42 41 40 40 40
61 61 61 62 63 63 64 64 63 64 63 63 61 61 60 60 59 59 56 59 59 59 62 60 58 54 51 53 51 52 54 52 51 54 57 57 54 54 54 55 54 44 44 49 49 45 42 42 42 44 47 53 54 53 50 49 44 40 40 40 40 40 41
62 62 60 60 60 62 61 61 60 60 61 61 60 59 59 57 58 60 56 59 58 59 61 60 58 55 53 52 53 58 56 52 54 54 53 54 55 56 56 55 58 55 46 43 45 44 42 41 41 41 42 44 47 50 53 47 42 40 40 40 40 40 41

ECMWFFLT1_sfc_dewp_003.txt.gz
Dewpoint
51 50 54 56 59 58 58 61 65 66 66 68 69 66 64 65 65 66 65 66 66 67 66 64 63 61 60 60 62 63 63 63 65 63 62 63 63 63 63 62 62 62 62 63 63 63 65 65 65 65 65 64 64 64 65 65 65 64 64 65 64 64 64
52 50 51 54 54 54 57 60 66 66 63 67 67 66 63 65 66 65 64 65 65 66 64 64 62 62 60 60 63 63 63 63 63 64 64 64 63 64 63 62 63 64 64 64 64 65 65 64 64 64 64 64 64 64 63 64 64 64 63 64 63 63 64
54 53 53 57 60 60 59 58 65 63 63 63 64 63 63 65 67 66 65 64 64 64 64 64 63 63 63 62 62 63 64 63 62 63 63 62 61 60 62 62 64 63 63 64 64 64 63 64 64 64 64 64 63 63 63 63 63 63 63 63 63 62 62
57 55 54 59 61 58 57 60 64 63 64 65 60 60 63 67 67 65 64 64 64 64 65 64 64 63 64 64 64 64 64 64 63 61 61 62 62 61 61 63 63 63 62 62 62 62 63 63 63 64 64 63 63 63 63 63 62 63 63 63 63 63 63
55 58 54 55 60 61 56 59 65 66 66 63 61 63 61 65 66 64 64 63 63 64 64 64 64 64 64 63 61 62 63 62 62 63 62 62 62 62 61 61 61 62 62 62 63 63 63 63 63 63 62 63 62 62 61 61 62 62 62 63 63 64 63
52 54 55 54 57 60 60 61 63 63 59 59 58 57 59 63 63 58 61 64 63 63 65 65 65 64 63 63 64 63 63 63 63 63 63 63 63 62 61 61 61 61 61 62 62 62 62 63 62 62 62 60 59 60 61 61 61 61 62 63 64 65 63
55 57 61 60 58 56 61 60 62 63 63 61 55 57 59 60 59 57 59 61 60 63 63 62 64 63 64 63 63 63 62 63 64 64 63 62 62 62 62 61 62 61 62 63 63 62 62 62 63 63 62 62 62 62 63 64 64 63 63 63 64 64 65
56 57 58 63 60 63 62 62 61 61 63 59 55 57 57 58 58 56 58 58 58 57 58 59 63 64 64 64 62 62 63 63 62 63 63 62 62 61 61 60 59 61 62 61 62 62 61 62 61 62 62 61 62 63 63 64 65 63 63 63 63 63 63
55 60 61 58 60 60 61 61 60 62 63 62 61 62 59 60 58 57 58 59 59 57 58 57 60 63 65 64 63 62 62 62 62 62 62 61 60 58 56 54 57 58 59 59 59 61 62 61 62 63 63 63 63 64 64 66 64 64 65 63 63 64 65
55 62 63 62 60 58 58 59 62 63 61 62 63 64 62 60 60 59 57 57 57 56 57 55 54 57 63 64 62 62 62 63 63 62 60 58 59 58 56 53 55 57 58 58 57 57 61 61 62 62 63 62 63 63 63 64 64 64 63 62 63 65 65
57 63 64 63 62 60 60 60 63 63 63 65 65 63 65 62 61 59 58 56 54 55 56 57 57 56 59 62 62 62 63 62 62 61 61 60 56 56 55 52 51 56 57 58 58 58 58 59 60 61 61 60 61 65 66 65 61 62 62 62 63 64 64
60 64 66 65 62 60 58 61 63 65 65 66 64 64 65 65 61 59 59 59 56 55 58 58 58 58 59 57 59 61 61 62 62 60 60 59 58 57 58 57 58 56 55 56 55 57 56 57 57 58 59 60 60 62 65 65 66 66 65 63 63 63 64
57 64 66 65 63 62 64 65 64 64 65 63 64 65 63 62 61 60 62 60 56 57 57 59 59 61 59 58 56 59 60 60 61 61 59 59 59 59 57 55 53 54 57 57 56 54 55 55 56 57 58 59 59 58 61 64 65 67 65 64 64 64 64
64 59 65 67 64 63 64 65 65 65 65 65 65 65 63 62 61 61 62 60 57 56 55 56 60 62 61 60 59 59 58 60 60 60 60 60 61 60 59 59 59 60 61 60 58 55 54 53 54 55 56 57 58 58 59 61 66 66 65 64 64 64 63
56 55 62 66 67 65 65 65 65 66 67 67 66 65 64 64 63 63 63 60 61 56 57 60 62 63 62 62 61 61 61 61 60 60 60 60 60 60 60 60 61 61 61 60 59 57 56 56 56 57 58 58 58 59 59 61 65 65 64 65 65 64 62
57 57 58 64 67 66 67 67 68 69 70 69 66 65 65 65 64 62 62 63 61 59 59 61 63 64 64 61 61 62 62 62 62 62 62 61 60 61 61 60 61 60 60 59 57 58 58 59 58 56 56 56 57 58 59 62 65 64 64 63 64 62 61
47 54 55 59 67 67 68 68 70 70 70 67 65 66 66 65 64 64 63 60 56 60 60 60 64 64 64 63 62 62 62 62 62 62 62 62 61 61 61 61 62 62 61 60 59 59 60 58 57 55 55 56 56 58 60 61 63 63 61 60 62 62 62
49 53 56 59 64 68 69 69 70 70 68 65 65 66 65 65 65 63 62 58 56 56 58 61 62 63 64 63 63 62 62 61 61 61 61 61 62 61 61 61 61 62 61 60 59 59 57 56 57 57 57 57 58 58 60 60 62 60 60 61 61 62 63
52 51 53 59 62 67 68 68 70 70 68 66 65 64 64 64 63 66 61 60 59 60 60 60 59 62 64 64 63 63 61 61 60 60 60 61 61 61 62 62 61 61 60 58 58 57 57 58 56 57 57 57 58 57 57 58 61 59 60 60 60 60 61
51 49 51 55 60 64 67 68 69 69 68 67 66 63 63 64 66 62 60 56 59 60 61 61 61 62 63 64 63 61 60 60 60 59 60 60 61 61 62 61 61 61 59 57 58 57 56 55 57 57 59 62 61 60 59 58 60 59 59 59 59 59 61
55 57 57 60 62 63 67 69 69 70 69 67 64 64 63 60 58 61 57 58 58 60 62 60 60 61 61 62 62 60 60 59 59 59 59 60 61 62 62 62 63 61 58 55 55 56 57 56 57 58 61 61 60 59 58 56 58 56 57 57 57 58 60
51 54 57 60 64 66 68 68 68 68 69 67 64 61 59 58 55 55 57 57 57 59 61 61 61 60 61 60 60 59 59 58 59 60 60 60 61 62 62 62 63 62 59 57 54 56 56 56 56 55 56 58 58 57 56 55 56 56 56 56 56 58 63
48 54 57 62 62 65 68 69 68 67 69 66 62 59 58 56 55 56 57 55 55 59 58 59 61 61 61 60 59 58 57 57 57 58 59 59 59 60 60 61 61 60 59 56 56 55 54 56 55 57 56 57 58 57 57 56 56 55 54 54 56 58 63
50 55 59 60 65 65 68 68 67 68 66 63 62 59 57 55 55 57 58 56 55 54 56 57 58 58 61 60 60 59 58 58 58 59 59 60 58 58 59 59 60 58 57 55 54 53 53 56 57 58 58 58 58 54 56 55 56 55 54 53 54 57 64
49 54 59 61 62 64 65 67 68 67 66 63 59 58 58 58 56 54 56 56 52 53 55 57 57 57 58 60 59 59 57 56 57 58 59 59 57 57 58 58 59 58 58 55 55 55 58 57 57 56 57 53 53 59 56 54 54 55 55 54 53 57 62
57 59 61 63 63 66 68 69 69 66 62 59 60 59 60 56 55 56 55 54 51 53 54 57 59 60 59 59 59 58 58 58 59 60 59 58 57 58 58 59 58 58 57 57 54 52 52 51 53 56 57 55 54 53 53 54 56 58 54 52 52 53 61
60 59 60 59 63 68 68 68 67 63 61 62 63 58 57 55 54 55 58 60 61 60 58 58 59 60 60 60 58 56 56 57 59 60 59 57 56 57 58 57 57 59 58 54 54 57 56 57 57 56 57 56 56 55 55 56 57 57 54 53 53 53 54
57 57 58 61 68 68 68 65 66 62 58 61 60 58 55 58 59 59 62 62 61 61 59 61 59 60 60 61 59 57 57 58 61 59 57 56 58 59 60 60 59 58 57 55 56 58 60 60 60 57 57 57 58 56 61 60 62 59 57 56 54 53 52
60 57 57 65 67 67 65 64 61 56 56 55 54 55 55 56 59 60 62 63 64 64 63 61 60 60 60 62 60 59 59 61 61 59 58 57 59 61 61 60 58 59 59 59 58 58 60 61 60 60 58 58 56 59 60 62 60 62 61 56 55 53 52
61 58 62 61 60 62 58 62 59 55 56 51 55 57 56 59 61 61 62 64 65 66 66 64 61 62 61 60 59 60 62 59 58 58 59 59 59 59 61 60 60 60 61 59 59 59 59 58 58 59 56 54 54 58 62 63 62 59 59 60 57 54 51
57 57 57 51 52 58 55 56 59 54 55 54 56 62 65 64 65 66 67 67 67 65 65 64 63 60 59 62 63 63 59 61 62 62 60 59 59 59 58 59 59 58 58 59 58 58 56 56 56 57 61 57 56 56 61 62 59 61 61 59 57 55 52
59 58 52 52 56 59 56 59 58 55 55 64 66 67 66 66 65 67 68 67 66 67 66 67 67 66 65 63 61 58 59 61 60 62 59 59 58 57 56 57 58 56 56 56 57 57 57 58 59 60 59 60 61 63 62 59 61 62 61 60 58 56 54
58 56 55 58 63 62 58 55 53 55 61 64 65 63 60 62 64 65 65 64 63 67 68 68 65 64 62 60 57 58 59 60 56 54 56 56 56 56 56 55 55 55 58 57 59 55 56 58 60 59 60 60 59 61 56 60 60 62 59 56 56 56 56
63 62 64 64 63 62 61 60 57 55 57 60 63 64 62 60 59 60 61 56 56 59 64 66 63 61 60 58 57 59 60 57 54 54 52 53 56 58 57 55 53 51 53 55 57 59 60 60 61 61 60 60 60 59 60 58 59 56 53 53 53 53 53
65 63 61 61 62 63 62 61 60 62 62 64 63 62 61 60 55 50 56 58 57 59 61 61 61 60 58 57 57 59 58 55 55 59 59 62 60 55 63 61 53 56 56 61 57 56 55 57 56 59 60 61 61 58 56 56 55 51 43 48 44 47 47
60 58 58 62 63 64 64 63 62 62 63 62 62 61 61 61 60 55 44 48 58 60 61 61 58 56 54 53 52 53 54 57 54 55 55 53 56 53 58 50 45 49 58 56 50 46 45 48 54 52 54 58 57 55 53 51 49 42 40 39 39 40 41
59 59 59 60 60 61 63 62 63 63 63 63 61 61 59 59 57 58 50 59 58 59 61 61 59 55 52 53 50 54 54 54 54 54 55 54 53 54 54 56 54 42 42 47 48 45 41 41 42 44 46 52 53 49 46 45 42 39 39 39 39 39 40
59 60 55 56 59 61 61 60 61 62 62 60 59 58 58 53 54 58 52 57 58 59 62 61 59 57 53 52 52 60 57 54 55 54 53 53 54 56 56 56 59 55 44 42 44 44 41 41 41 41 41 42 45 47 51 46 42 39 39 39 39 39 39

ECMWFFLT1_sfc_dewp_006.txt.gz
Dewpoint
48 50 54 57 57 56 61 63 63 63 66 68 69 68 68 69 71 70 69 70 70 69 70 71 70 69 68 69 68 69 68 70 70 69 72 72 71 70 67 69 65 67 66 68 67 68 68 69 69 68 69 68 68 69 69 69 69 67 68 69 69 68 67
47 49 51 53 56 57 62 63 63 65 66 67 68 69 68 69 70 69 69 70 70 69 70 69 69 68 68 68 69 69 68 68 69 67 69 69 68 70 67 69 70 67 68 68 68 69 69 67 68 69 68 68 68 68 67 68 68 68 67 68 68 69 68
51 50 52 54 55 57 64 63 64 65 67 66 65 67 68 70 70 69 69 68 70 70 69 68 69 68 68 69 68 69 68 68 67 67 66 66 66 64 66 70 66 68 68 66 67 67 68 68 68 69 68 67 67 68 68 67 68 68 67 68 67 66 67
58 60 62 61 59 61 63 64 66 64 66 66 67 66 69 70 69 70 68 68 69 69 68 68 67 68 68 68 68 68 69 68 67 66 66 66 64 67 68 67 68 66 69 66 66 65 66 67 66 68 67 67 67 67 66 66 66 67 67 67 68 67 68
60 62 60 64 66 63 61 65 65 65 65 64 66 69 69 69 68 68 68 67 67 68 68 67 65 67 69 69 67 68 68 69 68 67 67 67 68 68 66 62 65 66 66 64 68 69 66 68 67 66 66 68 66 66 67 67 67 67 67 67 67 67 68
58 58 57 62 60 62 60 61 62 60 64 64 66 67 66 66 65 63 64 67 67 67 68 68 68 69 69 67 67 67 69 68 68 68 68 67 68 66 65 64 62 64 62 67 66 67 67 67 66 65 64 62 62 63 64 65 65 65 66 67 67 67 67
56 62 61 59 64 63 59 57 58 63 64 66 68 66 64 62 63 63 63 63 63 66 66 66 67 68 68 68 68 69 67 67 67 66 66 66 66 66 66 66 66 65 65 68 68 67 65 66 67 67 65 65 65 64 66 66 66 67 67 67 67 67 67
55 59 60 58 58 58 56 59 64 63 62 64 64 62 60 62 64 63 61 60 60 61 61 62 66 68 68 68 68 67 67 66 66 66 67 66 66 66 66 65 65 66 67 64 66 66 64 66 65 66 66 64 65 66 66 66 66 65 66 66 66 65 64
56 61 60 56 58 60 57 60 64 65 67 66 64 64 62 62 62 63 60 59 61 61 61 60 62 66 69 68 67 67 67 67 67 67 66 66 65 61 61 61 64 64 64 63 63 68 67 67 66 67 67 66 66 66 66 66 66 67 66 66 66 65 65
59 64 64 59 57 58 59 61 65 66 67 67 67 66 63 63 65 63 58 55 57 59 61 60 62 62 67 67 66 66 67 66 67 65 62 60 63 60 59 58 59 64 66 60 64 64 68 65 65 65 66 66 65 65 65 66 67 67 67 66 66 65 65
54 67 65 64 64 62 62 62 64 67 67 67 66 64 64 63 65 63 61 57 57 58 59 61 63 63 65 65 63 63 66 65 64 64 64 62 58 58 56 54 55 61 60 63 63 66 67 67 67 67 66 65 65 65 65 65 66 67 66 67 66 66 65
65 68 67 67 66 67 66 66 67 68 68 67 66 65 65 65 64 62 61 60 59 59 60 60 59 63 64 62 63 65 64 65 64 63 63 63 61 60 60 61 63 60 57 64 58 64 61 64 64 63 65 66 66 65 65 65 67 67 67 66 66 66 65
61 68 68 66 70 67 69 69 68 68 68 68 66 66 66 64 64 62 65 64 61 62 61 61 60 63 61 61 61 65 64 64 65 65 62 65 64 64 61 57 55 55 59 58 59 57 58 59 62 65 65 65 66 65 65 65 64 67 67 67 67 66 66
62 53 66 68 69 67 67 68 68 67 67 67 66 65 67 65 65 64 65 63 61 60 61 60 64 64 64 63 65 66 64 64 65 65 66 65 67 66 64 64 65 63 66 63 61 58 59 57 60 61 63 63 62 63 64 64 63 66 68 68 68 67 66
51 51 59 67 71 68 67 69 68 67 66 66 65 65 66 65 65 67 65 62 68 62 64 65 66 64 63 66 66 67 67 67 66 66 66 66 67 66 66 65 67 66 66 66 64 61 59 59 60 62 63 62 63 64 64 63 62 63 66 67 67 66 65
41 51 53 64 66 68 70 68 69 69 67 66 65 66 66 65 66 65 63 65 63 68 68 67 67 66 65 65 66 67 67 67 68 67 67 66 66 66 66 64 66 64 65 65 64 64 64 65 64 59 59 61 63 63 62 63 64 66 64 64 66 66 64
49 49 51 58 68 68 67 66 66 68 69 67 66 67 67 67 66 64 60 59 62 66 66 65 67 67 66 66 67 67 67 67 67 67 67 67 66 66 66 66 66 66 66 66 66 65 65 64 63 58 59 60 59 60 61 63 64 63 61 62 64 64 65
49 50 54 59 60 66 67 66 68 68 67 66 67 68 67 67 65 64 62 63 65 64 65 66 66 65 67 67 67 67 67 66 67 67 67 67 67 66 67 66 67 66 67 66 65 66 65 63 63 63 62 60 59 60 62 63 64 60 60 61 62 63 64
53 53 59 63 67 67 67 66 68 69 67 66 67 67 66 66 64 64 63 66 67 67 65 63 64 66 67 67 67 67 66 67 66 66 66 66 66 67 67 67 66 66 65 64 65 65 64 64 63 64 64 62 64 61 60 59 62 59 60 60 60 60 61
48 48 51 53 57 60 68 68 68 70 73 70 70 71 71 67 65 65 65 65 66 65 64 64 64 67 67 67 67 67 66 66 65 65 66 66 67 67 67 66 66 65 63 64 66 65 64 62 63 63 64 65 65 65 62 61 60 58 58 58 59 59 61
56 56 56 57 61 57 70 70 71 73 70 69 70 69 68 65 64 64 65 66 65 64 63 64 64 66 66 66 67 67 66 66 65 65 65 66 66 67 66 66 67 66 65 63 63 63 64 63 63 64 63 65 62 62 61 59 58 56 57 56 57 58 60
46 46 50 56 62 65 71 71 72 70 69 69 69 68 66 63 61 62 65 65 64 62 62 64 65 65 65 66 67 67 66 65 66 65 65 66 66 66 65 66 68 67 68 66 64 62 61 61 62 62 61 63 63 59 62 57 57 56 56 55 55 57 61
39 44 48 61 55 61 72 72 71 71 71 70 69 68 65 62 62 64 63 64 61 60 61 63 65 65 65 65 65 66 65 64 64 65 65 65 64 65 65 66 66 66 70 65 63 60 59 60 59 61 61 60 60 60 61 59 58 54 54 54 54 56 62
42 47 50 52 63 62 73 72 72 72 70 70 69 68 65 63 64 64 63 62 60 59 60 61 62 64 65 65 65 65 65 65 64 64 64 65 64 64 65 63 66 66 67 64 61 58 57 57 59 61 62 60 60 54 57 57 58 54 53 53 54 57 61
41 41 51 55 59 62 65 72 73 72 72 70 70 69 68 65 64 63 62 62 59 59 59 62 63 64 65 65 66 66 65 65 64 64 63 64 63 63 64 64 64 64 65 61 61 60 63 61 58 59 60 56 54 60 56 55 53 53 53 54 54 59 61
54 52 57 61 61 66 73 74 75 71 69 67 67 67 65 66 64 62 63 61 58 57 60 63 64 66 66 66 66 67 66 66 66 65 64 64 65 66 66 64 63 63 61 60 59 59 60 59 57 57 56 54 53 53 56 56 59 61 54 53 53 54 61
50 50 52 51 58 69 71 72 72 69 68 68 67 63 65 64 62 61 61 62 63 63 63 66 67 67 66 67 66 65 65 66 66 64 64 65 66 64 63 63 63 63 63 59 58 62 60 60 60 58 59 58 58 61 60 61 59 59 54 54 55 54 56
47 48 48 57 69 69 69 67 71 68 66 67 62 65 64 63 62 62 64 64 64 66 69 70 70 69 68 67 66 66 65 64 66 65 64 66 65 66 66 65 66 64 64 61 62 64 62 62 62 61 61 61 61 60 61 62 62 59 58 55 54 54 53
56 53 55 67 69 68 66 66 67 67 65 60 61 62 62 62 64 65 67 66 69 71 72 72 71 71 70 69 68 67 66 67 67 64 63 63 64 63 63 65 64 63 62 64 64 63 61 62 62 64 64 62 62 63 61 61 62 62 61 57 55 52 53
63 62 62 64 66 67 64 65 66 66 64 60 61 61 61 62 66 67 68 65 71 70 68 68 68 68 69 70 70 68 66 66 64 65 67 66 64 64 65 66 64 64 62 64 65 63 63 63 62 64 62 62 62 62 63 62 63 61 59 60 57 53 49
61 61 62 63 66 66 64 64 65 65 63 63 68 70 70 68 68 68 69 70 71 68 68 68 68 67 65 64 65 67 66 67 65 64 64 64 64 64 65 62 63 65 64 63 63 64 63 63 60 61 62 62 61 62 63 62 62 62 61 59 56 53 51
63 64 62 62 65 64 61 63 63 63 67 66 68 70 70 69 69 69 69 70 70 69 68 68 67 66 65 65 65 64 63 60 62 63 63 64 64 63 65 60 61 63 64 62 61 62 63 63 64 62 61 62 62 62 63 62 63 63 61 57 56 54 53
65 65 64 62 63 64 65 59 59 62 64 66 65 63 60 61 64 68 69 68 68 67 68 67 66 66 66 66 67 66 64 62 61 61 63 63 63 63 61 65 64 63 62 63 61 60 60 59 59 60 58 59 59 61 62 63 62 57 54 54 54 52 52
65 65 68 67 66 65 62 63 63 64 63 65 65 65 64 64 63 64 65 60 60 64 67 67 65 65 64 64 64 64 62 63 59 61 57 58 58 56 61 60 57 57 60 59 59 59 58 58 58 59 56 58 59 60 60 60 56 50 49 51 51 49 49
65 65 67 65 65 65 64 64 63 65 64 65 65 64 63 60 55 50 58 62 63 65 66 65 65 64 62 61 61 61 64 61 62 61 60 61 63 58 54 54 57 59 57 54 55 55 55 56 55 56 54 55 59 57 56 55 51 48 44 48 43 47 47
63 63 65 65 65 66 65 66 67 66 65 64 64 63 62 61 60 54 45 56 59 61 66 66 62 60 57 57 57 58 58 59 54 56 58 57 60 57 53 49 44 50 57 52 48 46 45 48 52 51 54 54 51 52 50 49 48 43 40 39 39 39 40
62 61 62 62 63 65 66 67 66 66 65 65 65 62 61 61 56 60 56 62 62 60 63 62 63 61 54 55 52 53 57 55 55 58 64 62 59 57 56 53 50 42 43 46 46 43 40 40 41 44 46 54 49 46 46 45 42 39 39 39 38 38 39
60 60 59 60 63 65 66 66 65 64 63 65 64 62 63 55 57 62 56 61 60 61 65 61 63 62 57 54 56 65 64 58 61 60 59 61 61 61 59 58 56 52 42 41 44 42 40 40 39 40 41 43 47 48 50 46 42 39 39 39 39 38 38

ECMWFFLT1_sfc_dewp_009.txt.gz
Dewpoint
53 54 54 54 55 59 59 60 62 63 64 64 68 69 70 70 70 70 68 67 67 67 67 67 66 67 65 66 65 65 65 66 64 67 62 65 68 65 67 66 65 67 65 65 66 66 66 67 66 67 67 67 67 67 66 67 66 68 66 66 66 66 65
51 54 53 54 55 59 60 60 61 62 64 64 68 68 69 70 70 69 68 67 67 66 67 66 66 67 64 65 65 64 65 65 66 69 68 68 68 66 65 66 64 65 66 65 65 67 66 66 66 67 66 66 66 66 66 66 65 65 66 65 65 65 65
49 53 53 53 55 59 60 60 60 62 63 64 67 68 69 70 70 68 68 67 67 66 67 66 66 66 65 65 65 63 64 65 67 65 64 64 65 64 64 66 66 64 63 67 66 65 67 67 66 64 65 64 65 66 66 66 65 66 66 65 65 65 64
50 51 54 54 55 59 61 60 60 62 63 64 66 67 68 70 69 68 67 67 66 66 66 66 66 63 65 65 64 64 64 65 65 63 64 64 65 65 66 65 64 64 64 66 67 66 66 64 63 65 69 66 66 66 66 65 65 65 64 65 64 65 65
50 51 55 55 55 60 61 60 60 62 63 64 65 67 68 70 69 68 67 67 66 66 66 66 66 62 65 65 65 65 64 64 65 64 65 64 66 65 62 62 64 64 64 64 63 64 64 65 65 65 65 65 65 64 65 66 66 66 65 65 64 65 65
50 54 55 55 56 59 61 60 60 61 63 64 65 67 68 69 68 67 67 67 66 66 66 65 65 64 64 64 65 66 66 65 64 64 64 66 65 63 62 63 62 62 63 63 66 66 65 64 63 65 64 63 63 62 63 63 64 64 64 64 64 64 65
51 55 55 55 56 58 61 60 59 61 63 64 65 67 67 68 67 66 66 66 66 66 65 65 64 65 63 65 65 66 65 65 64 64 64 65 65 63 62 61 63 62 62 63 63 64 63 63 64 64 63 64 64 63 63 64 64 65 65 64 64 65 65
55 57 57 56 57 59 60 61 60 62 64 64 65 66 66 67 66 66 65 65 66 65 64 64 63 66 64 65 65 64 64 64 63 64 64 64 64 64 63 62 62 63 64 63 63 64 62 62 63 64 64 63 63 64 65 64 64 64 64 64 64 64 65
55 57 58 57 55 58 60 61 62 62 64 64 65 66 66 66 65 65 64 64 65 65 63 63 64 65 65 64 65 64 63 64 63 63 64 63 64 62 63 62 62 63 63 62 62 64 63 63 63 64 64 63 63 63 63 64 63 65 65 64 64 63 64
55 58 58 57 55 55 58 61 62 63 64 65 65 66 65 66 65 64 64 63 63 64 63 63 65 65 65 64 65 64 64 64 64 63 63 63 63 63 62 62 61 62 62 62 62 62 65 64 64 64 64 63 64 63 63 64 64 64 65 64 64 63 63
56 59 58 57 56 56 57 59 62 63 64 65 65 65 65 65 64 64 63 62 61 62 62 62 64 64 64 64 64 64 64 64 64 64 63 63 63 62 61 60 58 63 62 62 61 61 63 64 65 64 64 63 62 63 63 63 64 64 65 65 65 64 64
59 60 60 59 58 58 57 58 63 63 64 65 66 66 65 64 64 64 63 62 61 61 61 62 64 63 62 62 63 63 63 63 63 63 62 62 61 61 60 59 61 59 61 62 62 63 63 61 62 63 62 62 63 63 63 63 63 64 65 65 65 65 65
61 60 60 59 59 58 58 59 62 64 64 64 65 66 65 64 64 64 63 61 60 61 61 62 63 63 62 61 61 62 61 62 62 62 62 62 62 61 61 61 57 57 59 61 60 60 59 60 60 61 61 63 64 63 63 63 63 63 64 65 65 65 64
67 62 62 60 63 61 59 59 62 64 65 65 64 65 64 63 63 64 62 59 59 60 61 62 63 63 62 62 62 62 61 62 62 62 62 63 63 63 62 61 62 62 62 63 61 60 60 60 60 60 62 62 60 60 61 60 60 61 64 65 65 65 65
61 63 63 63 63 66 61 60 62 64 65 66 65 65 64 63 63 64 62 59 59 60 61 62 63 62 62 62 63 63 62 62 62 63 63 64 64 63 62 61 62 62 62 61 62 63 61 61 61 61 61 61 61 60 61 63 63 63 65 66 66 66 65
52 57 63 64 64 65 64 62 62 64 65 66 65 65 64 63 63 63 62 60 62 61 61 63 63 63 63 62 64 64 63 63 64 63 63 63 63 63 62 61 62 62 63 63 63 62 64 63 62 62 61 59 60 62 63 60 63 65 66 66 66 66 66
50 52 57 64 67 65 65 65 64 64 65 66 65 65 64 64 64 63 62 61 61 61 60 61 62 62 62 61 63 64 64 64 64 64 64 63 63 63 62 62 63 63 63 63 63 63 63 63 62 60 59 59 59 58 59 61 64 64 61 62 65 65 64
57 57 57 57 66 66 65 65 66 66 65 65 66 66 65 65 65 64 64 64 65 64 62 60 61 61 61 61 64 65 63 63 64 64 63 64 63 63 63 63 63 63 63 63 64 64 64 63 62 61 61 61 59 59 60 63 64 60 60 61 61 63 63
54 54 55 58 65 65 65 65 65 67 66 66 66 66 65 65 64 64 64 64 65 66 66 65 64 63 62 64 65 64 63 63 63 63 63 63 63 63 64 63 63 63 63 63 64 64 63 63 63 62 62 62 61 61 60 60 61 60 59 59 60 60 61
53 52 52 55 56 65 66 65 65 65 67 67 66 66 67 65 64 64 64 64 64 64 64 65 65 65 66 66 66 65 63 63 63 63 63 63 64 64 63 63 63 62 63 63 64 63 63 63 61 61 60 60 59 61 62 61 61 59 58 58 58 59 61
58 58 58 55 53 52 63 66 65 65 66 68 68 65 64 64 64 63 63 63 63 64 64 64 64 66 66 65 64 65 64 64 63 63 63 64 63 64 63 63 63 63 63 63 62 62 62 62 62 61 61 62 63 62 63 63 60 58 57 56 56 57 60
51 53 50 50 50 51 53 66 67 67 68 68 64 63 63 62 62 61 64 64 64 65 64 64 64 65 66 65 65 65 64 64 63 63 63 63 63 63 63 63 63 63 63 64 64 64 63 61 61 60 60 61 62 61 60 61 58 56 56 55 55 57 60
43 46 51 58 55 59 65 69 69 69 65 63 63 63 63 62 64 64 63 63 63 64 64 63 63 62 62 64 65 65 65 64 63 63 63 62 62 62 62 63 63 63 65 64 63 62 62 61 60 60 59 59 61 61 59 60 57 55 54 54 54 56 59
47 50 49 64 65 65 68 73 69 65 63 62 63 63 62 62 62 62 63 63 63 62 63 62 61 61 62 63 65 65 65 64 63 63 62 62 61 62 62 63 64 64 66 63 62 61 61 60 59 59 60 60 60 60 58 58 58 55 53 53 54 57 59
49 57 60 61 62 65 64 64 64 64 64 63 62 63 63 63 64 63 62 62 62 62 61 61 60 60 61 62 64 65 65 64 63 62 62 61 61 61 61 61 63 64 65 62 62 61 61 61 59 58 59 59 59 61 58 59 59 55 54 54 54 57 59
59 61 61 61 64 63 63 65 65 64 64 62 63 63 62 63 63 64 63 63 62 62 61 61 60 60 61 63 64 65 65 64 63 62 61 61 61 61 61 62 63 62 63 62 61 60 60 61 58 58 59 60 59 60 60 61 61 61 56 54 53 54 58
57 54 52 62 65 65 63 63 64 64 64 63 63 63 63 63 63 62 62 61 61 61 61 61 60 62 63 64 64 64 64 64 63 62 61 62 62 61 63 62 61 62 61 60 60 60 61 61 60 60 59 60 60 60 61 61 61 61 55 53 53 54 56
60 57 66 66 65 63 62 62 63 63 63 63 62 63 62 62 61 61 60 60 59 60 61 64 64 64 63 63 63 63 64 63 63 62 62 63 63 62 62 64 63 62 62 62 61 61 60 60 60 60 59 59 61 60 60 61 62 61 59 53 52 51 53
65 66 64 63 63 63 62 62 62 62 62 61 61 62 62 61 60 61 62 61 62 63 65 63 63 64 63 63 63 63 63 63 64 62 63 64 63 63 63 62 62 62 61 60 60 61 61 60 61 61 60 60 58 59 60 59 60 61 60 54 50 50 52
65 64 63 63 63 62 62 62 62 61 60 60 60 61 60 60 61 61 64 65 67 66 65 64 64 64 65 67 67 66 65 65 65 65 64 64 64 63 62 62 62 62 60 59 60 60 60 60 60 61 59 59 59 59 60 60 60 60 59 56 52 50 48
63 65 64 64 63 64 62 60 60 59 59 60 59 60 60 61 65 66 65 67 67 65 65 65 64 63 63 63 63 63 63 63 63 63 63 63 63 62 61 61 61 60 60 59 59 60 60 60 59 60 58 59 58 58 59 60 60 59 57 57 54 51 49
60 61 64 65 64 63 62 61 61 59 59 59 61 63 64 65 67 66 67 68 67 66 65 65 65 65 64 62 61 60 60 61 62 63 63 62 62 62 61 62 63 62 61 61 61 60 60 59 60 59 60 59 59 58 59 59 58 55 54 55 54 52 50
64 62 60 61 63 64 64 63 62 63 64 64 62 61 63 65 67 67 68 68 68 67 65 65 65 65 64 63 63 61 59 60 62 64 64 60 60 61 60 60 57 57 60 60 60 60 59 58 60 58 57 58 58 58 59 58 54 51 51 52 52 50 50
64 64 63 60 61 63 63 64 64 63 61 61 63 62 62 60 61 62 65 67 66 66 66 65 65 65 63 63 63 62 62 60 64 63 61 60 60 60 60 60 59 59 57 56 57 57 57 57 58 57 56 57 58 57 58 56 52 49 47 48 50 50 48
63 63 63 63 63 64 63 64 64 64 64 64 64 63 63 62 61 58 63 64 65 65 65 64 65 64 64 63 61 61 63 62 63 60 59 57 52 50 50 51 56 54 52 52 52 54 55 56 56 54 55 56 53 53 56 52 50 48 46 47 45 46 48
63 63 63 63 62 62 63 64 64 65 65 65 65 63 61 59 60 60 63 63 65 66 65 65 64 63 62 62 61 61 61 58 55 56 59 56 53 51 50 49 43 47 53 51 49 47 46 50 52 53 53 48 48 50 49 49 48 44 40 39 39 39 40
63 63 63 62 62 62 61 63 65 64 62 62 62 61 60 60 62 63 64 65 65 66 66 65 63 62 61 60 59 59 59 56 56 59 59 57 54 53 52 50 49 42 41 46 46 43 40 40 42 46 49 50 47 47 46 46 43 40 39 39 38 38 38
63 63 63 63 62 62 63 65 63 62 62 62 61 61 60 60 62 62 61 62 64 64 63 64 62 62 60 56 59 62 61 58 58 59 59 59 56 53 53 51 50 50 43 40 42 41 40 39 40 40 42 46 49 47 49 45 41 40 39 39 39 38 38

ECMWFFLT1_sfc_dewp_015.txt.gz
Dewpoint
57 59 62 63 64 64 65 66 67 67 67 68 69 69 70 70 70 70 70 70 70 70 71 71 70 69 69 68 65 63 63 62 63 61 61 60 61 63 63 63 62 61 62 61 61 64 64 65 65 65 65 65 64 65 64 66 65 66 64 65 64 64 63
56 59 61 63 64 64 65 66 67 67 67 67 68 69 69 70 70 70 70 70 70 70 70 70 70 68 68 67 64 62 62 62 63 64 62 63 65 64 63 62 62 62 62 62 63 64 64 65 64 64 64 65 65 64 64 64 64 64 64 63 63 62 63
56 58 60 62 63 64 64 65 66 67 67 67 68 68 69 69 70 70 70 70 70 70 70 70 70 67 66 65 64 62 62 61 62 62 61 61 64 63 63 62 62 62 62 62 63 63 65 64 64 63 63 64 64 63 63 63 64 64 63 62 62 63 61
56 58 60 62 62 63 64 65 66 67 67 67 67 68 68 69 70 70 70 70 70 70 70 70 69 67 65 63 63 62 61 61 61 62 61 62 63 63 63 62 62 62 62 62 63 63 65 64 63 63 67 63 62 62 62 63 63 63 63 63 62 62 62
55 57 60 61 62 62 63 64 65 66 66 67 67 68 68 69 69 70 70 70 70 70 70 70 69 67 65 63 63 62 62 61 61 62 61 63 63 62 62 62 62 61 61 62 63 65 63 63 63 63 63 63 62 62 63 63 63 64 63 63 62 62 63
54 56 59 60 61 62 63 63 64 65 66 66 66 67 68 68 69 69 70 70 70 70 70 69 68 67 64 63 62 62 62 61 62 62 62 63 62 61 61 62 62 61 61 61 64 64 63 63 63 63 62 63 63 63 62 62 62 62 62 62 62 62 63
54 55 57 59 60 61 61 62 63 64 65 66 66 67 67 67 68 69 69 69 70 69 69 68 67 66 64 63 62 63 62 61 62 62 62 62 62 62 61 62 63 61 60 61 62 63 63 62 62 62 62 62 63 62 61 61 61 61 61 61 62 62 62
53 54 56 57 58 60 60 61 62 63 64 65 65 65 66 67 68 68 69 69 69 69 68 68 67 66 65 64 62 62 62 61 62 62 62 62 62 62 62 62 62 61 61 61 61 63 62 62 62 62 62 61 61 62 61 61 61 61 61 62 62 62 62
52 54 55 55 56 58 59 60 61 62 63 64 64 65 65 66 67 68 68 69 69 68 68 67 66 65 65 64 63 62 62 62 62 62 62 62 62 62 62 62 62 62 61 61 61 63 62 62 61 62 61 61 61 61 61 61 61 62 61 62 62 62 62
51 52 54 55 55 57 58 59 60 61 63 63 64 64 65 66 67 67 68 68 68 68 68 67 66 65 64 64 63 62 62 63 63 62 62 61 62 62 61 61 61 62 61 60 61 61 62 62 61 61 61 61 61 62 61 62 62 62 62 62 62 62 61
51 52 53 54 55 56 57 58 59 61 62 63 63 64 64 65 66 67 68 68 68 68 68 67 66 64 64 64 64 64 63 65 64 63 62 62 62 61 61 60 60 61 61 61 61 61 61 62 63 61 61 61 61 61 61 62 62 62 62 62 62 62 62
51 52 53 53 54 55 56 58 59 60 61 62 63 63 64 65 66 67 68 68 68 68 67 67 66 64 64 63 64 65 65 65 63 62 62 62 62 61 60 60 60 60 62 61 60 61 61 61 61 62 62 61 61 61 61 61 62 62 62 62 62 62 62
51 51 52 52 54 55 55 57 59 60 60 61 62 63 64 65 66 67 67 68 68 68 67 66 65 64 63 63 64 64 65 64 63 64 63 62 61 61 61 60 60 60 60 62 61 60 60 61 61 62 62 62 62 62 62 61 61 61 62 62 62 62 62
57 51 52 53 54 55 55 56 58 59 60 60 61 62 63 64 65 66 67 67 68 67 67 66 65 63 63 64 65 65 65 64 65 64 64 63 63 62 61 61 61 62 62 62 61 61 60 60 61 60 62 62 61 61 61 61 61 61 61 61 61 61 61
51 51 52 53 54 55 55 55 57 58 60 60 61 61 62 64 65 66 67 67 68 67 67 66 63 62 64 65 65 65 64 65 65 65 64 63 62 62 62 63 63 63 62 61 61 61 60 60 60 59 60 61 61 61 62 62 61 60 59 59 59 60 60
51 52 51 52 54 55 56 56 57 58 59 60 61 61 62 63 64 65 66 67 67 67 67 64 63 63 64 64 65 64 64 65 65 64 64 64 64 63 63 63 62 62 61 60 60 60 60 59 59 59 59 59 60 60 61 60 60 62 62 62 60 60 60
52 52 52 53 55 56 56 57 58 59 60 61 61 61 62 63 64 65 66 67 67 67 66 64 64 64 64 64 64 63 64 65 64 64 64 63 64 64 63 63 62 62 62 61 60 59 59 60 59 59 59 59 59 59 60 60 61 62 60 61 63 62 60
52 52 54 55 56 57 57 58 58 58 59 61 62 63 63 64 64 65 65 66 66 66 65 64 63 64 64 64 64 64 64 64 63 63 64 64 64 63 60 59 61 62 61 61 60 59 59 60 59 60 60 60 60 60 60 60 61 59 59 60 61 62 62
53 55 55 57 59 60 60 61 62 61 60 60 62 63 64 65 65 65 65 65 65 65 65 64 64 63 64 64 64 64 64 62 63 64 64 64 64 62 61 62 63 63 62 61 60 59 60 60 60 60 60 60 60 60 60 60 61 59 59 59 59 59 61
54 55 57 59 61 62 62 63 63 63 62 61 62 63 65 66 65 64 64 64 65 65 64 64 64 64 64 64 64 62 61 63 63 64 64 64 64 63 63 63 63 63 62 61 60 60 60 60 60 60 60 60 60 60 61 61 60 59 58 58 58 59 60
52 54 55 56 59 61 62 64 64 64 64 63 63 64 65 65 64 63 64 64 64 64 64 64 63 64 64 64 63 63 61 62 63 63 64 63 63 63 63 63 63 62 62 61 60 60 60 60 60 60 61 61 61 61 61 61 60 58 57 56 56 57 59
49 50 50 52 55 58 61 63 64 65 65 65 65 65 64 63 62 62 63 64 64 64 64 64 63 63 64 64 63 62 62 62 63 63 63 63 63 63 63 62 62 62 61 61 60 60 60 60 60 60 61 62 62 61 61 61 57 57 57 56 56 57 59
45 47 47 51 53 55 60 62 64 65 65 64 64 64 63 63 62 62 63 63 64 64 64 64 63 63 63 64 63 63 63 63 63 63 63 63 62 62 62 63 62 62 62 61 60 59 60 60 60 61 61 61 61 61 60 59 58 55 54 54 54 55 56
54 56 60 62 64 64 63 64 64 65 64 63 63 63 63 63 63 62 62 63 63 63 63 63 63 63 64 63 63 63 64 63 63 63 64 63 62 62 63 63 62 62 62 60 60 59 59 60 61 61 62 61 60 60 59 59 58 55 54 53 54 56 55
63 65 65 65 64 64 64 63 64 64 63 63 62 62 63 63 63 62 62 63 63 63 63 62 62 63 63 63 63 63 63 64 64 63 63 62 63 62 62 62 62 62 61 61 60 60 60 62 61 60 59 60 60 62 61 58 56 55 54 53 53 56 55
64 65 65 64 64 64 63 64 63 62 62 63 62 62 63 63 63 63 62 62 63 62 62 62 62 63 63 62 63 63 63 64 63 63 62 62 62 62 62 62 61 61 61 61 61 60 61 62 61 59 59 60 61 61 58 57 58 58 53 53 53 54 57
64 65 65 64 64 66 63 62 62 62 62 62 62 63 63 63 62 62 63 62 62 62 62 62 62 62 62 62 63 62 63 63 63 62 62 62 63 62 62 61 60 61 61 61 61 60 60 60 59 59 60 59 59 58 58 58 58 59 52 51 52 53 56
64 65 65 66 65 63 61 61 61 60 61 61 62 63 63 62 62 62 62 62 61 62 62 61 61 62 62 62 62 61 62 62 62 63 64 64 63 61 61 61 61 61 61 61 61 60 59 60 60 59 59 58 58 58 56 59 61 57 52 51 50 51 52
62 62 63 63 62 62 62 60 60 60 61 62 62 62 62 62 62 62 62 61 60 61 61 61 61 61 61 61 61 61 61 63 64 65 64 63 63 62 61 61 61 61 61 61 59 59 59 59 59 59 58 56 57 56 58 58 60 57 55 49 48 48 49
62 62 63 64 63 63 63 60 60 61 61 61 62 61 61 61 61 61 61 59 60 61 61 61 61 61 61 62 61 61 62 63 64 63 63 64 63 63 62 61 61 60 60 60 59 58 57 58 58 58 58 58 56 56 58 59 59 56 55 52 49 46 46
62 63 63 63 63 63 63 62 61 61 60 60 61 61 61 61 61 62 60 60 61 61 60 60 61 61 61 61 61 62 62 62 63 63 63 63 63 62 62 60 60 59 59 59 58 57 57 57 57 57 57 57 56 56 58 58 56 55 56 55 52 50 49
63 63 63 62 62 63 63 62 61 60 60 60 61 61 61 60 61 61 61 62 62 61 61 61 61 61 61 61 62 62 63 63 63 63 63 63 62 62 61 60 60 59 58 57 57 56 56 57 57 57 57 57 55 56 58 57 55 53 52 55 54 52 51
62 62 62 62 62 63 61 61 61 60 61 60 61 61 61 62 63 63 63 62 62 62 62 62 62 62 62 62 63 62 62 62 62 62 61 61 60 60 60 60 59 58 58 56 56 56 56 56 57 57 57 56 55 56 58 55 52 49 48 47 48 49 50
61 62 62 62 62 62 61 61 61 61 61 60 60 60 62 63 63 62 62 62 62 62 62 62 62 61 61 61 61 61 61 61 63 62 59 59 59 58 58 58 58 56 56 56 56 56 56 57 58 58 57 56 55 56 58 55 50 48 47 45 48 49 48
61 60 60 61 62 62 61 60 60 60 60 60 60 61 63 63 62 62 62 62 62 61 61 62 62 61 60 60 60 60 62 61 63 61 59 54 51 49 47 49 52 54 51 50 50 53 57 57 58 57 57 56 56 57 57 56 54 51 48 49 48 47 48
60 60 61 61 62 60 60 61 60 60 60 60 61 62 63 63 62 63 63 63 63 62 62 62 62 62 62 61 61 60 60 61 60 57 55 53 52 50 49 47 41 43 51 50 49 47 45 52 54 55 53 49 47 51 55 55 52 43 40 40 39 40 42
61 60 61 62 61 61 60 60 62 61 60 60 61 63 63 62 63 63 63 62 63 63 62 61 60 60 60 60 59 59 60 60 57 55 53 53 52 51 50 49 48 41 41 44 45 44 42 43 45 47 49 52 46 46 46 45 41 39 39 39 38 38 38
60 60 61 62 62 61 61 61 61 60 60 60 61 62 61 62 62 61 61 61 62 62 61 61 61 60 60 60 59 60 61 59 58 56 53 52 52 52 51 50 49 49 44 41 41 41 41 41 41 42 44 45 47 45 46 43 40 39 39 39 39 38 38

ECMWFFLT1_sfc_dewp_021.txt.gz
Dewpoint
56 57 59 61 62 61 62 64 65 66 67 68 68 68 69 70 71 72 72 72 73 73 74 74 74 74 74 74 75 75 75 75 75 74 73 72 71 71 70 70 70 71 70 69 69 69 69 70 71 71 71 71 70 70 70 70 70 69 69 69 68 68 67
55 56 57 60 61 62 63 65 66 66 66 67 68 69 68 70 71 71 72 73 73 73 74 74 74 74 74 75 75 75 75 75 75 74 73 72 71 71 70 70 70 70 70 70 70 70 70 70 70 71 71 71 70 70 69 70 70 69 68 69 68 68 68
54 55 57 59 60 61 64 64 66 66 67 66 67 68 69 71 72 71 72 72 73 74 74 74 74 74 74 75 75 75 75 75 74 73 72 71 70 69 69 70 70 69 69 70 70 69 69 69 70 71 70 70 69 70 69 70 70 69 69 69 68 67 68
56 56 57 60 62 64 64 64 65 65 66 66 66 67 69 72 72 72 72 72 73 73 74 74 74 74 74 74 75 75 75 74 74 72 71 71 70 69 69 69 69 69 69 68 68 68 68 69 69 70 70 69 69 69 69 68 68 69 69 69 68 68 67
57 57 57 59 60 62 63 64 65 66 65 65 67 69 70 71 71 72 72 72 72 73 73 73 73 74 74 74 74 74 74 74 73 72 71 70 70 70 68 67 68 67 68 68 69 69 69 69 68 69 69 69 68 69 69 69 68 69 69 69 68 68 67
56 57 58 58 59 61 62 63 63 64 65 65 67 69 69 69 69 69 70 72 72 72 73 74 74 74 74 74 74 74 74 74 73 72 71 70 70 69 68 68 67 67 67 68 68 68 69 69 68 68 67 67 66 66 67 68 68 68 68 69 68 67 65
56 58 58 59 60 60 62 62 62 64 65 66 67 68 67 67 68 68 69 70 71 72 72 73 73 73 74 74 74 74 73 73 72 71 70 69 69 69 69 68 68 67 67 69 68 68 68 69 69 68 68 67 67 66 67 68 67 68 68 68 68 68 67
57 58 60 60 59 59 60 63 63 64 66 67 67 66 66 67 68 68 69 69 69 69 70 70 72 73 74 74 74 74 73 72 71 70 69 69 69 68 68 68 68 68 69 67 68 68 67 68 68 68 68 67 68 68 68 68 68 67 67 67 67 67 67
56 60 59 57 59 58 60 63 64 66 68 68 68 68 68 68 68 68 69 69 70 70 70 69 71 73 74 74 74 74 73 72 70 70 68 68 68 66 66 66 68 68 67 66 66 68 68 67 67 68 68 68 68 68 68 68 68 68 67 67 67 67 66
58 60 61 59 59 59 63 64 66 68 69 69 69 70 69 69 69 69 69 69 69 69 70 71 71 72 74 74 73 73 73 71 70 69 67 67 67 66 65 64 66 67 67 67 67 66 67 67 67 67 67 67 67 67 67 68 68 68 67 67 67 67 66
58 61 62 60 62 63 64 64 67 69 69 70 70 70 70 70 70 69 70 69 69 69 70 71 72 72 72 73 72 72 72 71 69 68 68 67 66 65 64 63 63 65 66 66 67 66 66 66 66 66 66 66 66 67 67 67 67 67 66 66 67 67 66
60 61 62 62 64 64 63 66 68 69 70 70 70 69 71 71 70 70 70 70 70 70 70 71 71 72 72 72 72 72 71 71 69 68 67 66 65 64 63 64 66 66 66 65 65 65 65 66 65 66 66 65 66 66 66 67 67 67 67 66 66 67 66
59 61 62 61 64 64 67 67 68 69 70 69 68 70 70 70 70 70 71 71 70 70 71 72 72 73 72 71 71 71 71 71 69 68 67 67 67 66 65 64 65 65 65 65 64 63 64 64 65 66 65 66 65 65 66 66 66 67 67 67 67 67 66
59 59 60 63 63 64 65 67 68 69 69 69 69 70 70 70 70 71 71 71 70 70 70 71 72 73 72 72 71 71 71 71 70 69 68 68 68 67 66 66 68 68 68 67 64 64 64 64 65 65 65 65 65 66 66 66 66 67 67 67 67 66 66
55 56 59 60 63 65 66 66 68 68 68 69 69 69 70 69 70 71 71 70 71 70 70 72 72 73 72 72 71 71 71 71 71 69 68 68 68 68 68 68 68 68 68 67 65 65 65 65 65 64 64 65 65 65 65 65 65 66 67 66 66 66 66
55 56 57 59 62 63 65 66 68 68 69 69 69 69 69 69 70 70 70 70 70 71 71 73 73 73 72 72 72 72 71 71 70 69 68 68 68 66 66 67 67 67 67 65 65 65 66 65 65 64 64 65 65 65 65 65 66 65 62 63 66 67 67
55 55 56 59 63 63 64 66 67 68 68 69 69 69 69 70 70 70 68 69 70 71 71 72 73 73 73 72 72 72 71 70 70 69 67 68 68 68 68 66 65 65 65 65 65 66 66 66 65 63 63 63 63 64 65 65 65 62 61 61 63 65 66
56 58 57 59 61 62 64 64 66 66 67 67 68 69 69 70 69 69 68 70 70 69 70 71 72 72 72 72 72 71 71 70 70 69 68 68 67 67 67 67 67 66 65 65 65 66 65 65 65 65 64 64 63 63 64 64 63 60 60 61 61 63 65
56 57 59 61 62 63 62 62 64 66 66 66 67 68 68 69 68 69 70 70 71 71 71 72 72 72 72 72 71 71 71 70 69 69 68 68 67 67 66 66 66 65 63 62 63 65 65 64 64 64 64 64 64 63 63 62 62 59 59 60 60 60 63
57 57 58 58 60 61 63 63 64 65 67 68 68 67 69 69 68 69 70 71 72 72 72 72 72 72 72 72 71 71 70 70 69 68 68 68 67 67 66 66 64 64 64 63 64 63 64 64 64 64 64 64 64 63 63 63 61 58 58 58 58 59 61
58 58 58 60 61 60 64 65 65 66 67 66 65 67 68 68 68 69 70 71 71 72 72 72 72 72 71 71 71 70 70 70 69 68 67 67 66 65 65 65 64 64 64 63 63 64 65 64 65 64 64 64 63 63 63 62 60 58 57 57 57 58 61
55 55 58 59 62 64 65 63 64 64 66 66 67 66 66 67 66 66 69 71 71 72 72 72 72 71 71 70 70 69 69 69 68 67 67 66 66 65 65 64 63 62 63 61 61 63 64 65 64 64 64 64 64 62 62 61 58 57 57 56 56 58 64
53 56 59 62 61 63 67 66 67 65 68 67 66 67 66 67 67 68 69 70 70 72 71 71 71 71 70 70 69 69 68 68 67 67 67 65 64 63 63 63 62 62 61 61 61 61 63 63 63 64 64 63 64 64 64 64 61 56 56 56 56 58 65
56 58 60 61 67 66 68 68 68 68 66 67 68 70 70 69 69 70 70 70 71 71 71 70 70 70 70 69 69 68 68 68 67 67 66 65 64 63 63 63 63 63 63 61 61 61 61 63 64 64 65 64 64 62 64 63 61 55 54 55 55 60 65
56 59 61 63 63 65 67 69 69 68 69 69 69 69 70 70 70 69 70 70 70 70 69 69 70 69 69 69 68 68 67 67 67 66 65 65 64 63 61 61 62 63 64 63 63 62 64 64 64 64 65 63 62 64 62 63 60 54 54 54 54 60 64
63 63 64 66 67 69 69 69 69 69 69 68 68 69 69 69 69 70 70 69 68 68 69 69 69 69 69 68 68 67 67 67 66 66 65 65 64 65 63 63 62 62 63 63 63 63 63 64 64 64 64 63 63 63 63 64 66 64 53 52 52 55 64
65 65 65 65 66 67 67 67 68 68 68 68 68 68 68 69 68 68 68 68 68 69 69 69 69 69 69 68 67 66 66 66 66 65 64 64 64 64 63 63 63 63 63 62 62 63 65 65 65 65 66 65 65 65 65 65 66 62 52 51 52 54 58
64 64 65 66 67 66 66 66 67 67 67 68 67 67 67 68 68 68 68 68 68 69 68 69 69 68 68 67 67 66 66 65 66 65 64 64 64 65 64 64 64 63 63 63 64 65 65 66 67 67 66 67 66 66 66 64 63 63 54 52 51 53 56
65 65 65 65 65 65 65 67 67 66 65 64 65 66 67 68 68 68 67 68 69 68 68 68 68 68 67 67 67 66 66 65 65 64 63 63 64 64 65 65 65 65 65 65 65 65 66 67 67 66 66 66 65 65 64 64 63 58 58 51 50 50 52
68 66 65 63 64 65 66 66 65 64 64 64 66 67 67 68 68 67 68 68 68 67 67 68 67 67 66 67 66 66 65 65 64 64 64 65 65 65 65 65 65 65 66 66 66 66 66 67 66 65 63 64 64 62 64 64 63 57 56 55 50 49 49
65 66 66 65 63 65 64 64 65 65 65 65 66 67 67 68 68 68 68 68 67 67 67 67 67 65 66 66 66 66 66 65 65 65 65 65 65 65 65 64 64 65 66 67 66 66 66 66 65 65 65 65 63 62 63 62 62 61 57 54 50 48 46
66 66 66 66 65 65 64 64 64 65 65 65 66 66 67 67 68 69 69 67 67 67 67 67 66 65 66 66 66 66 66 65 65 65 65 66 65 65 65 64 64 64 65 64 64 65 65 66 65 65 65 65 64 61 61 61 61 61 59 54 51 50 49
68 67 67 67 67 66 65 65 64 64 65 65 65 65 64 66 67 68 68 67 66 66 67 67 67 66 65 65 66 67 66 66 65 65 65 65 65 64 65 65 64 63 63 63 64 65 65 64 64 63 63 62 63 62 61 61 60 60 60 58 56 55 54
66 67 67 67 67 67 66 66 66 65 65 65 65 65 65 65 66 66 65 64 64 65 66 66 66 66 66 65 66 66 66 66 66 65 64 64 65 64 64 64 64 63 63 63 65 65 64 64 63 62 61 61 61 62 61 60 59 58 58 58 57 57 57
66 66 67 67 67 67 68 67 66 66 66 65 65 64 65 65 64 63 65 64 64 66 65 66 66 65 65 65 64 65 65 65 65 65 66 66 62 57 54 54 61 65 64 64 64 64 62 62 63 62 62 61 61 61 61 61 60 59 55 60 53 56 55
64 64 65 66 66 66 67 67 67 66 65 65 65 65 65 65 65 64 62 63 64 65 66 66 66 66 66 65 65 63 63 64 64 64 64 62 59 56 53 47 42 44 55 60 52 49 46 44 62 60 60 59 61 62 59 57 59 49 46 44 44 44 44
64 64 64 65 65 66 66 66 66 66 66 65 65 65 65 65 65 65 64 65 65 66 66 66 65 64 62 63 61 62 63 63 62 63 63 61 60 59 57 54 51 40 40 43 45 44 41 43 42 45 52 60 58 54 46 47 45 43 41 40 40 40 40
63 64 64 64 64 65 65 65 65 65 65 65 65 65 65 65 65 66 65 66 66 66 66 65 64 63 62 62 62 64 64 62 63 63 62 61 61 60 59 58 57 54 43 40 41 41 40 40 42 45 49 51 55 53 54 45 41 41 40 40 39 39 39

ECMWFFLT1_sfc_dewp_024.txt.gz
Dewpoint
57 59 60 61 62 63 63 65 66 66 67 68 69 70 69 70 70 71 72 74 75 75 76 76 76 77 76 76 77 77 77 76 76 76 75 75 73 73 73 73 73 73 71 70 71 70 71 71 70 69 68 68 68 67 68 68 68 67 68 68 68 67 67
56 56 58 60 61 63 64 66 67 66 67 68 69 71 69 71 71 71 72 74 75 75 76 76 76 76 76 77 77 77 77 77 77 76 75 75 75 74 74 74 73 73 73 72 71 71 71 69 69 68 67 68 67 67 67 68 68 68 66 67 67 67 67
55 56 57 59 61 62 65 65 66 66 67 67 68 69 69 71 72 72 73 73 75 75 75 76 77 76 76 77 77 77 77 77 77 76 76 74 75 74 75 74 74 72 72 73 71 70 70 69 69 68 67 67 66 67 68 68 68 67 67 67 67 67 66
55 56 57 60 63 64 65 65 66 66 66 66 67 68 70 72 72 72 73 73 74 75 75 76 76 76 76 77 77 77 77 77 77 76 76 75 75 75 75 74 74 72 72 71 69 69 69 68 68 67 68 67 67 67 67 67 67 67 67 67 66 67 66
55 56 57 59 60 63 64 65 65 67 65 65 68 70 70 71 71 72 72 73 73 74 74 75 75 76 76 76 76 76 77 77 77 76 76 75 76 75 74 73 72 72 71 71 70 70 69 68 67 67 67 68 67 67 67 67 67 67 67 67 67 67 66
54 57 57 58 59 61 64 64 64 64 65 65 67 68 68 68 69 69 70 73 73 73 75 75 75 76 76 76 76 76 77 78 77 77 76 76 76 75 74 73 72 72 70 70 69 69 69 69 67 67 66 65 65 65 66 66 66 66 67 68 67 67 65
54 58 58 58 59 60 62 63 63 64 65 65 66 68 67 67 68 68 69 70 71 73 73 73 74 75 76 76 76 76 77 77 77 77 76 75 75 75 74 73 73 71 71 71 70 69 69 67 67 67 66 66 67 66 66 67 67 67 67 67 68 67 66
55 58 59 59 58 58 60 63 64 63 65 65 65 65 66 66 67 67 68 68 69 69 70 70 73 75 76 76 76 76 77 77 76 76 75 75 75 74 73 73 72 72 71 70 70 69 67 67 66 68 67 67 68 67 67 68 68 66 66 67 66 65 65
55 60 59 57 58 57 58 62 64 64 66 67 67 67 67 67 66 67 68 68 69 69 69 69 70 73 76 76 76 76 76 76 76 76 75 75 74 72 72 72 72 72 71 70 69 69 68 67 66 69 70 67 67 69 69 69 68 67 66 66 66 65 63
57 61 62 59 58 55 59 61 65 66 67 68 68 69 68 68 68 68 68 67 67 68 69 69 69 71 75 76 75 76 77 76 76 75 73 73 72 71 71 70 71 71 70 69 68 68 69 68 68 70 68 66 67 70 69 68 68 67 67 67 66 65 65
56 62 63 60 59 60 61 62 65 68 69 70 70 68 70 69 68 68 68 68 66 68 69 70 70 70 73 75 74 75 76 76 75 74 73 72 70 70 70 69 69 70 69 68 67 67 67 68 69 69 68 66 68 69 68 68 68 67 67 67 67 66 65
62 62 64 63 62 62 62 66 68 69 70 71 70 69 71 71 69 68 69 69 68 68 69 70 70 70 72 73 74 75 76 76 75 73 73 73 71 70 69 69 70 69 68 67 66 68 67 68 67 68 68 67 67 68 68 68 67 68 67 66 66 67 66
61 63 65 62 64 64 66 69 69 71 72 71 70 71 71 70 70 69 71 71 69 69 70 71 71 72 71 73 73 75 76 76 75 74 73 73 72 71 69 68 67 67 67 66 66 64 63 65 66 67 67 67 68 67 67 67 67 68 68 67 67 67 67
63 62 63 64 65 66 67 70 71 72 72 72 71 71 71 71 71 71 72 71 71 69 69 70 72 73 73 73 74 75 76 76 76 75 74 74 73 72 70 69 69 69 68 67 65 62 61 64 66 66 67 68 67 67 67 68 67 67 68 68 67 66 66
58 59 62 62 66 67 68 69 71 72 72 71 71 71 72 71 71 72 73 72 73 70 71 72 73 74 73 74 75 75 77 77 76 75 74 73 73 72 71 70 71 71 69 68 65 62 62 64 67 68 67 67 66 66 67 66 66 66 66 66 67 66 65
56 56 59 62 65 66 68 69 71 72 72 72 71 72 71 71 72 72 72 72 72 73 72 73 74 75 75 75 75 76 76 76 76 74 73 73 72 72 71 71 72 71 69 68 66 67 67 68 67 65 65 65 66 67 66 66 66 64 63 65 66 66 66
56 55 56 61 65 65 67 68 70 71 71 71 71 72 71 72 73 73 71 72 72 73 73 73 75 75 76 75 76 76 76 75 75 74 73 73 72 72 71 71 70 70 69 69 69 67 67 67 65 64 64 64 65 66 66 66 65 62 61 62 63 66 66
54 58 57 60 63 65 66 67 70 70 71 70 71 72 73 73 73 73 72 72 73 72 72 73 74 75 76 76 76 76 75 74 74 73 73 73 72 71 71 71 69 69 69 69 68 68 68 68 67 66 64 63 63 63 65 65 63 60 61 61 61 63 65
54 57 59 62 65 65 65 66 69 70 70 70 71 72 72 73 72 73 73 73 74 74 73 74 73 75 76 76 76 76 76 74 73 73 73 73 72 71 71 71 69 68 68 68 68 67 67 66 66 64 63 64 65 64 63 63 62 60 60 60 60 60 63
55 56 59 60 63 65 67 67 68 69 70 72 72 71 73 73 73 73 74 74 75 74 74 74 75 75 76 76 76 76 76 74 73 73 73 72 72 71 70 70 69 69 68 68 68 67 66 65 63 61 62 63 64 65 63 63 62 59 59 59 59 60 62
59 60 61 63 65 64 67 68 69 70 71 70 69 72 72 72 72 73 73 74 74 75 74 75 75 75 75 75 76 76 76 75 73 72 72 72 71 70 70 69 69 68 68 67 66 65 65 64 62 60 62 62 62 62 63 62 60 58 58 57 57 59 61
56 58 60 62 65 66 68 66 68 68 70 70 70 71 71 71 70 69 73 74 74 75 75 75 75 75 75 75 76 75 75 74 73 72 72 71 70 70 69 69 68 67 67 66 65 64 64 64 62 62 63 63 62 60 60 59 58 57 57 56 56 58 64
50 56 58 62 62 64 69 68 69 69 71 70 69 69 67 68 68 71 73 73 73 75 74 74 74 74 75 74 75 75 74 74 73 71 72 71 70 69 68 68 66 66 66 65 63 62 61 60 59 61 60 61 62 61 62 61 60 56 56 56 56 58 64
50 54 56 59 63 66 69 68 67 70 68 68 67 69 70 70 69 72 73 73 73 74 74 73 73 74 74 74 74 74 73 72 70 71 71 71 70 69 68 67 66 65 65 64 63 61 60 60 59 60 62 62 64 60 61 60 59 55 54 55 55 59 64
52 54 59 62 64 65 64 67 68 68 69 69 71 72 72 72 73 72 72 73 73 73 72 72 73 73 74 73 74 73 72 70 70 70 71 70 70 69 68 68 67 65 64 63 63 62 62 61 61 61 62 61 61 62 61 59 58 54 54 54 54 60 65
58 59 60 62 62 66 70 71 70 70 71 72 73 73 74 73 71 71 72 73 71 71 71 72 73 74 73 73 73 72 71 69 69 70 70 70 70 69 68 68 67 65 63 62 62 62 61 61 61 61 62 62 61 60 60 60 62 67 54 53 53 56 64
64 64 63 63 66 69 70 69 69 70 71 73 73 72 72 71 71 72 73 72 71 71 72 73 73 73 73 73 71 71 70 69 69 69 69 69 69 68 67 66 65 64 63 62 62 62 62 62 62 62 63 62 63 63 63 63 63 70 53 52 53 55 61
63 64 66 68 69 68 68 69 73 73 73 73 72 71 72 73 73 73 72 72 73 73 73 73 73 73 73 72 71 69 68 68 69 69 69 69 69 68 66 66 65 64 64 63 64 64 64 64 64 64 64 65 65 66 67 67 66 68 56 53 52 54 58
66 66 67 68 69 69 69 70 71 70 69 68 69 71 71 72 73 72 72 73 72 72 73 72 72 72 71 71 69 69 69 69 69 68 68 68 68 68 66 65 65 65 65 65 65 64 64 64 65 66 66 67 68 68 68 68 69 60 61 51 51 52 56
67 66 65 65 66 68 68 69 68 67 67 67 70 71 71 73 72 72 73 72 72 72 72 72 71 71 70 70 69 68 68 68 68 68 68 68 68 68 67 66 65 66 66 65 64 63 64 64 65 65 64 66 66 66 66 67 67 59 58 55 52 52 53
64 64 64 65 65 67 67 67 69 69 69 70 71 72 72 72 72 73 72 72 72 72 71 71 70 70 69 69 68 68 68 68 68 68 68 68 67 67 66 66 65 65 66 66 64 64 64 65 66 66 66 66 65 65 65 65 67 63 58 55 52 51 51
67 66 66 66 68 68 67 67 68 69 69 71 71 71 72 72 73 73 71 71 71 71 71 71 70 69 69 68 68 67 68 67 67 68 67 67 66 66 66 65 65 65 65 64 63 63 65 66 65 64 65 66 66 65 65 63 63 63 60 56 54 53 51
69 69 69 69 69 68 68 68 67 68 68 69 69 69 69 71 71 71 71 71 70 70 71 71 70 69 68 68 68 68 67 67 66 66 66 67 66 66 66 65 65 64 64 64 63 62 63 65 65 65 64 65 66 65 64 63 63 63 61 62 60 58 55
68 68 69 70 70 69 68 68 68 68 69 69 69 69 69 69 69 69 69 67 67 69 70 69 69 68 68 67 67 67 67 67 66 66 65 65 65 64 64 64 64 64 64 63 63 63 64 64 64 64 64 63 64 65 62 61 62 62 60 60 60 59 58
68 69 69 69 71 71 70 70 70 70 68 69 69 69 69 67 65 66 67 67 68 70 69 68 67 68 66 66 66 66 67 66 66 66 66 66 62 58 55 56 64 67 65 68 67 68 64 64 63 64 63 62 64 63 62 61 60 59 55 63 56 62 57
66 66 67 68 68 70 70 71 71 70 69 69 69 69 68 68 67 66 64 67 68 69 69 69 67 66 65 65 65 64 64 65 64 65 65 64 61 58 54 47 42 46 62 65 53 47 45 48 63 59 62 62 62 63 61 60 59 51 48 46 44 41 40
65 65 65 66 67 68 69 69 70 70 70 69 69 68 68 68 67 67 66 67 69 70 69 69 67 64 62 62 60 62 63 63 64 65 66 65 64 62 60 57 54 40 40 45 46 45 40 43 43 46 50 62 60 54 49 50 47 45 43 43 41 40 39
64 65 64 64 66 68 68 68 69 68 68 68 68 68 68 67 67 68 67 69 69 69 69 68 67 64 63 61 61 63 64 63 64 65 64 64 63 63 62 61 60 57 42 40 42 41 40 39 41 43 46 47 53 56 56 47 42 42 41 41 41 41 40

ECMWFFLT1_sfc_dewp_027.txt.gz
Dewpoint
53 52 54 58 61 60 61 63 65 65 66 66 67 67 65 65 68 70 71 73 75 76 76 77 76 76 76 76 75 75 75 75 74 73 73 73 73 72 72 71 71 72 70 69 70 69 69 70 69 67 67 67 67 67 68 68 68 67 67 68 67 67 66
53 50 49 53 60 61 62 64 66 65 66 67 67 68 66 66 68 69 71 73 75 75 76 77 77 76 76 76 76 76 76 76 75 74 73 74 74 73 72 72 72 72 72 71 71 71 71 69 68 68 67 67 67 68 67 68 68 68 67 67 66 67 66
44 52 51 55 59 61 64 64 65 65 66 66 67 67 67 69 69 71 71 72 74 75 76 77 77 76 76 76 76 76 76 76 75 74 73 72 73 72 73 73 72 72 72 72 71 71 70 69 69 68 68 68 66 67 67 67 68 67 67 67 66 66 67
46 52 56 58 61 64 64 64 66 65 65 65 67 68 69 70 70 70 70 72 74 75 75 76 76 76 76 76 76 77 77 76 76 74 73 73 72 74 73 73 73 72 71 71 70 70 70 70 69 69 69 68 67 66 67 67 67 68 68 68 68 67 68
50 51 54 58 59 62 63 64 66 67 65 65 67 70 70 70 70 70 71 72 73 75 74 75 74 76 76 76 76 76 77 77 76 75 74 74 74 74 74 71 73 72 71 71 71 71 71 70 68 68 68 68 66 67 67 67 67 68 67 68 69 68 67
43 52 55 57 59 61 63 63 64 64 65 64 66 69 69 69 69 68 70 72 73 73 75 75 75 76 76 76 76 76 77 77 77 77 75 75 75 73 74 74 73 72 70 71 71 71 70 69 68 68 67 65 65 65 66 67 67 67 67 68 68 67 66
42 47 52 57 59 60 62 63 63 64 64 64 65 68 69 68 68 68 68 70 71 73 73 73 74 74 76 76 76 76 77 76 77 76 76 75 75 75 75 75 74 73 71 72 72 71 69 69 69 68 67 65 66 66 67 68 67 67 68 68 68 68 68
40 45 56 58 57 58 60 64 64 64 64 64 64 66 66 67 67 66 67 67 69 68 70 70 72 74 76 76 76 76 76 76 77 77 76 76 75 75 75 75 74 74 73 72 72 71 69 69 68 68 67 66 66 67 67 67 67 67 68 68 68 68 67
39 52 57 56 56 55 59 63 64 65 66 66 65 68 68 66 65 65 65 66 68 68 69 68 70 73 76 76 76 77 76 76 77 77 76 75 75 74 74 74 75 74 73 72 71 71 70 69 68 69 68 67 67 67 68 68 68 67 67 68 68 67 66
45 52 60 58 57 54 59 62 65 68 68 68 68 70 68 67 67 65 64 64 66 67 67 68 68 71 75 76 76 76 77 76 76 76 75 73 74 74 73 72 73 74 73 72 71 70 71 70 68 68 69 66 67 68 68 66 67 67 67 68 68 67 67
43 52 61 60 59 59 61 61 66 70 70 72 71 68 69 68 67 66 66 65 64 66 67 67 68 70 73 75 74 75 76 76 75 76 75 74 73 73 72 71 72 73 72 72 71 71 70 70 68 69 68 65 68 68 67 66 67 68 66 67 68 67 67
56 58 65 64 62 61 61 67 69 71 72 72 69 68 71 71 68 67 67 67 65 65 67 67 67 68 72 73 74 75 76 76 75 75 75 74 73 72 72 71 72 72 72 72 70 70 69 69 68 68 67 67 69 68 67 66 68 68 67 66 66 67 67
57 64 66 62 63 62 67 69 69 70 71 70 68 70 69 68 68 68 71 70 66 66 68 70 70 71 71 73 73 76 77 76 76 75 75 75 74 73 72 71 69 70 71 71 70 69 68 68 69 68 68 68 68 67 67 68 69 68 68 66 66 67 67
66 62 64 64 63 64 65 67 69 70 71 71 70 70 70 70 69 70 71 70 68 66 67 68 71 71 71 73 75 76 77 77 77 76 76 75 76 75 74 72 71 72 73 72 70 69 69 68 68 67 68 69 67 67 69 69 68 68 68 67 66 66 66
61 62 64 63 64 66 67 67 70 71 71 71 71 71 71 71 71 72 72 71 71 66 68 71 72 72 71 74 75 76 78 78 77 77 77 76 76 75 74 73 73 73 73 73 71 69 68 68 67 68 68 67 67 66 68 68 67 66 67 65 66 66 65
50 52 59 63 65 65 68 69 71 72 72 73 71 72 72 72 72 71 71 71 69 70 70 72 73 74 73 74 76 77 78 77 77 76 76 75 75 75 74 74 73 72 72 72 71 71 70 69 68 67 67 66 66 66 68 67 66 66 64 65 67 67 66
37 37 41 60 67 66 68 70 72 73 73 73 72 72 73 73 73 72 70 71 71 72 71 71 75 75 75 75 76 77 78 77 76 76 76 76 75 75 74 73 73 73 73 72 72 71 72 70 68 66 65 66 66 67 66 64 64 63 62 63 65 66 65
34 40 39 42 54 67 69 70 72 72 73 72 72 73 73 74 73 73 71 73 72 70 70 72 74 75 76 76 77 77 77 77 76 76 76 75 75 75 75 74 73 73 73 72 71 72 71 69 67 67 66 66 67 64 63 65 64 60 61 62 62 66 66
34 35 40 59 63 67 68 68 70 73 72 72 72 73 73 74 72 74 74 75 75 74 73 74 75 76 76 77 77 77 77 77 75 75 75 75 75 75 75 74 74 75 74 72 72 72 71 69 67 68 67 66 65 62 61 62 61 59 60 60 61 61 64
32 33 32 38 53 56 68 69 69 71 73 74 73 72 74 75 74 74 74 75 76 75 75 75 76 77 77 78 78 78 77 76 74 75 75 75 75 75 74 73 73 73 72 72 72 72 71 69 70 67 66 65 64 63 61 62 60 59 58 59 60 60 62
39 41 42 48 55 48 65 70 70 72 73 72 71 73 73 73 73 74 75 76 76 76 76 76 77 77 77 77 78 77 76 75 74 75 75 74 74 74 74 73 74 73 72 71 71 72 71 69 69 68 67 65 62 60 60 61 59 58 57 57 58 59 61
34 33 33 40 58 66 69 68 69 70 72 72 71 71 72 73 73 73 75 76 75 76 76 76 77 77 77 77 77 77 75 74 74 72 74 74 73 73 73 73 73 73 73 72 71 71 69 68 67 66 65 64 61 59 63 64 57 57 56 55 56 58 63
28 32 31 53 49 60 70 70 71 71 74 72 71 71 72 73 73 74 75 75 75 76 76 76 76 77 77 77 77 76 75 74 73 73 73 73 72 72 72 72 72 72 72 71 70 69 67 66 64 64 62 63 62 60 64 62 59 56 55 55 56 58 64
25 29 29 44 62 65 72 71 70 72 71 71 72 73 74 73 74 75 76 76 76 76 76 76 76 76 77 76 77 76 75 75 74 73 72 73 73 71 70 71 71 70 71 70 69 68 67 65 64 63 61 60 59 58 60 59 61 55 54 55 55 59 64
39 34 41 54 61 66 68 70 71 71 72 72 73 74 75 74 75 75 75 76 76 75 74 75 75 75 75 76 76 76 76 75 74 72 71 72 72 71 70 70 71 70 70 69 68 67 67 66 64 63 63 59 59 60 58 56 56 53 54 54 54 59 65
43 39 44 58 61 67 70 72 72 72 71 71 74 75 74 73 74 75 75 75 73 72 73 74 74 76 76 76 76 75 75 74 73 73 71 71 71 71 71 70 69 69 68 68 67 67 65 64 63 62 61 60 59 60 59 58 59 64 53 53 53 55 65
51 47 50 56 60 69 70 71 72 71 72 73 74 72 72 73 74 74 74 74 72 72 72 74 75 76 75 75 74 73 73 72 72 71 70 70 71 70 69 69 68 68 67 66 65 66 66 64 63 62 62 61 61 61 61 61 60 67 53 52 53 54 59
54 57 61 63 69 69 69 69 72 71 70 73 72 72 73 74 74 74 73 71 72 73 74 76 76 75 75 75 73 72 71 71 72 71 69 71 71 70 70 70 69 68 66 65 65 66 65 65 64 63 62 62 62 63 65 65 65 72 55 53 52 53 55
61 61 65 69 69 69 68 69 71 73 74 71 71 72 73 74 74 72 72 73 75 75 75 75 75 75 74 73 73 72 71 71 71 70 69 70 71 70 69 69 68 68 67 66 66 65 65 64 64 63 63 64 65 65 67 68 68 63 62 53 51 51 53
68 70 69 67 66 68 70 73 71 70 69 68 71 73 73 73 73 74 74 74 75 75 74 74 74 73 72 72 72 71 71 70 69 69 70 70 70 70 69 68 68 67 66 66 65 65 65 65 64 65 64 64 66 68 68 68 66 60 59 57 52 50 50
68 67 66 66 68 70 68 66 67 68 70 71 73 73 74 75 75 75 74 74 74 74 74 73 72 71 71 71 71 71 70 69 69 69 70 70 70 68 67 67 67 66 67 66 66 65 64 64 65 65 65 67 66 67 67 67 66 62 59 57 53 52 52
67 68 68 68 68 68 69 69 70 71 72 73 74 74 74 74 74 73 74 74 73 73 73 72 71 71 70 70 69 69 68 68 68 69 69 68 68 68 68 66 66 66 66 65 65 65 64 64 63 64 65 66 66 66 66 66 66 63 60 58 56 56 54
66 66 66 67 67 68 67 68 68 69 70 70 71 70 70 71 72 73 73 73 72 72 72 71 70 69 69 69 68 68 68 68 67 67 68 68 67 67 67 66 66 66 65 65 64 64 64 63 64 63 65 66 67 67 66 66 65 64 62 61 60 60 58
69 69 68 67 68 69 69 68 68 68 69 70 70 69 69 70 70 71 71 70 70 71 71 71 70 68 68 67 67 67 68 67 68 67 66 66 66 66 66 66 65 65 65 64 65 64 63 63 67 65 64 65 67 67 65 63 63 63 62 60 60 60 60
69 70 70 70 69 70 70 70 70 70 69 69 69 69 69 68 67 68 69 69 71 71 70 69 68 68 67 66 66 67 68 67 67 67 66 66 65 61 58 61 68 66 66 62 62 67 64 64 65 67 68 68 67 66 63 63 62 62 56 63 56 59 58
65 66 68 69 70 70 71 71 71 70 69 69 69 68 68 67 68 68 67 69 70 70 70 70 68 67 66 65 65 65 65 65 64 66 65 65 63 61 57 48 43 49 67 63 53 47 47 57 68 64 64 66 67 64 64 61 62 47 45 44 42 42 44
64 64 64 66 67 69 70 71 71 71 71 70 69 68 67 68 67 68 68 70 71 70 70 70 67 65 64 64 62 62 64 63 64 66 66 65 64 64 62 59 55 41 41 46 48 45 40 41 43 46 50 66 61 58 46 48 46 44 43 42 41 39 40
64 64 65 67 68 69 70 70 71 70 70 70 69 68 69 68 68 70 69 70 70 70 70 69 66 64 62 62 61 64 65 63 64 66 66 65 65 65 64 63 62 58 43 40 42 42 41 40 40 41 42 48 57 58 58 48 43 42 41 41 40 40 39

ECMWFFLT1_sfc_dewp_030.txt.gz
Dewpoint
51 51 54 55 57 56 59 63 64 64 66 66 67 67 66 68 70 71 72 74 75 76 76 76 76 76 76 76 77 77 76 76 76 75 76 76 75 75 75 75 74 74 73 74 73 73 73 74 73 73 73 71 71 70 70 71 71 70 72 71 72 71 70
49 50 50 51 55 58 61 64 64 64 66 67 67 68 66 68 70 70 71 74 75 76 76 76 76 76 76 76 76 77 76 76 76 76 75 76 76 76 75 75 75 75 75 74 75 75 73 73 72 72 70 70 70 70 69 70 71 71 70 71 71 72 70
49 50 50 52 54 58 62 62 64 65 65 65 66 66 67 69 70 71 72 73 75 76 76 76 76 75 76 76 76 76 76 76 76 75 75 74 75 73 75 75 75 74 74 74 75 73 72 71 72 72 70 69 69 69 69 69 70 70 71 71 70 69 71
51 51 53 55 59 61 62 63 65 64 64 63 65 65 68 70 70 71 72 72 74 75 76 76 76 75 75 76 76 76 76 76 76 74 74 74 74 75 75 75 75 74 74 73 73 72 71 71 70 72 71 70 69 69 69 68 68 70 70 70 70 70 70
53 54 53 55 55 61 62 62 63 66 64 63 65 68 69 70 69 69 71 72 72 74 75 76 74 75 75 76 75 76 76 76 76 75 74 74 75 75 75 72 74 72 73 73 73 73 73 72 70 71 70 71 69 69 69 69 69 70 70 70 69 69 69
54 52 53 52 52 57 59 60 59 61 64 63 65 67 67 67 67 66 68 72 72 73 76 76 76 76 76 75 75 76 76 76 77 76 75 75 75 75 74 74 73 72 72 73 72 73 73 72 70 70 68 69 67 67 68 68 68 69 69 70 70 68 67
51 51 54 54 55 55 57 58 58 61 63 64 65 67 67 66 66 64 66 69 71 74 74 75 75 76 76 75 75 76 77 76 76 76 75 75 75 75 75 74 74 73 72 74 73 72 72 72 71 70 69 68 68 67 67 68 68 69 69 69 69 69 69
47 51 56 55 53 53 55 62 63 63 64 66 65 65 66 66 65 64 64 67 70 71 73 73 75 76 76 75 76 75 76 76 76 76 75 75 75 74 74 74 74 74 74 73 73 72 71 72 71 70 70 68 69 68 68 69 69 68 69 69 69 69 68
47 53 54 51 52 51 53 61 62 61 63 67 66 67 67 66 65 64 66 68 69 70 72 73 74 75 76 76 76 76 76 76 76 76 75 74 74 72 72 74 75 75 74 72 72 73 72 72 70 71 70 69 68 69 68 69 69 69 68 68 69 68 68
52 59 57 53 52 51 58 60 62 62 63 67 68 69 69 68 67 66 66 66 67 69 71 72 73 73 76 76 75 75 76 77 77 75 73 72 73 72 71 71 74 75 74 73 72 72 73 72 71 70 70 69 68 69 68 69 68 68 68 69 69 68 68
54 60 59 56 58 59 60 59 61 64 67 70 70 69 70 70 69 68 68 67 67 68 71 71 72 72 74 74 74 74 76 76 76 75 74 73 72 72 71 71 72 74 73 73 72 72 72 72 71 71 70 69 68 68 68 68 68 68 67 68 69 69 68
61 61 64 63 63 62 60 62 64 69 71 71 70 69 71 71 70 68 69 68 67 68 70 70 70 71 73 73 74 75 76 76 75 74 74 74 72 72 71 71 73 73 73 73 72 73 72 71 70 70 70 69 68 68 68 69 68 68 67 67 68 69 68
63 63 65 63 65 63 65 66 68 71 73 71 69 69 71 70 70 69 70 69 67 68 69 71 70 72 73 74 73 76 76 75 75 75 74 74 74 73 72 71 70 71 72 72 72 71 71 71 70 70 70 69 68 68 68 69 69 69 68 68 68 69 68
68 65 66 68 68 68 69 73 73 73 73 72 70 70 71 71 70 70 70 68 66 66 67 68 70 72 74 75 75 76 76 76 76 75 75 75 75 75 73 73 73 73 74 73 72 71 71 70 70 70 70 70 68 68 69 69 68 68 68 68 68 68 67
64 63 65 65 68 68 70 73 74 74 74 72 70 70 71 70 70 71 71 69 68 65 67 69 70 71 73 75 75 76 77 77 77 76 76 76 76 76 75 75 75 75 75 74 73 72 71 71 71 70 70 70 68 68 69 68 67 68 68 67 68 67 66
45 59 63 64 67 68 71 73 74 74 75 74 71 71 70 71 71 70 70 70 68 68 69 71 71 72 74 75 76 77 77 77 77 77 77 77 77 77 76 76 76 75 75 75 74 74 73 72 72 69 70 69 68 69 70 68 67 66 63 65 67 66 66
41 46 57 64 67 67 69 71 73 74 74 74 73 72 71 72 72 72 68 70 68 69 70 71 73 73 74 76 77 78 78 78 78 78 77 77 78 77 77 77 77 76 75 75 75 74 74 74 72 69 69 68 67 68 68 68 67 62 61 63 65 66 67
40 52 60 64 66 65 69 70 72 73 73 73 73 73 73 74 73 72 70 71 70 68 70 72 73 73 75 76 78 78 78 78 78 78 78 78 78 78 77 77 77 77 76 76 75 75 74 73 73 71 69 69 68 68 67 68 65 60 62 63 63 65 66
39 47 56 64 67 67 68 66 69 72 71 72 72 73 73 74 72 73 72 73 73 71 72 74 74 74 75 77 78 78 79 79 78 78 78 78 78 78 77 77 76 76 75 75 75 75 74 75 73 72 69 68 68 67 66 68 61 60 61 62 61 63 65
39 39 43 61 66 67 68 69 70 72 73 74 74 71 73 74 73 74 74 75 75 73 74 76 75 75 75 77 78 79 79 79 78 77 77 77 78 77 77 76 76 76 75 75 75 75 74 73 73 72 71 69 68 67 67 66 59 59 59 60 60 62 64
54 47 46 57 68 66 70 71 73 74 75 74 72 73 74 74 74 75 75 76 75 74 76 76 76 76 76 77 78 79 78 78 78 78 77 77 77 77 76 76 76 75 75 75 74 74 74 73 72 72 70 69 68 68 65 63 59 58 58 59 59 60 63
36 38 44 49 59 71 72 71 72 73 74 73 73 71 72 73 72 72 74 76 75 75 77 77 77 76 77 77 78 78 78 78 77 77 77 77 77 76 76 76 75 75 75 74 73 73 74 73 72 71 69 69 67 65 64 64 58 57 57 57 57 59 64
25 34 37 47 45 63 73 72 73 73 76 75 72 72 72 72 72 73 75 75 74 77 77 77 77 77 77 77 78 78 78 77 77 77 77 76 76 76 75 75 75 75 75 74 72 72 73 72 71 71 68 67 67 65 64 64 58 56 56 56 56 59 64
22 28 33 35 45 46 71 73 72 74 75 74 73 73 75 74 74 75 76 75 75 76 76 77 77 77 78 78 78 78 77 77 76 76 75 75 75 75 74 74 75 75 75 73 71 71 70 69 69 69 69 67 65 62 65 64 58 54 54 54 55 59 62
22 24 30 34 36 39 67 72 73 73 75 75 74 75 76 76 76 75 76 76 75 76 75 76 77 77 77 77 78 77 77 76 75 76 75 74 74 73 73 73 74 73 73 72 72 71 70 68 67 66 67 64 63 64 63 63 59 53 54 53 53 58 61
40 35 33 35 35 40 71 74 74 75 75 74 75 76 76 76 76 75 76 76 75 75 75 76 77 78 78 77 77 76 76 75 75 75 74 74 74 74 73 73 72 72 72 71 70 69 68 67 66 65 64 62 62 61 61 61 64 59 53 52 52 54 60
55 51 50 37 44 73 75 75 74 74 74 75 76 76 76 76 75 76 76 76 76 75 76 77 78 78 77 77 75 75 75 75 75 74 73 73 73 73 72 71 71 71 70 68 68 69 69 67 66 65 65 63 61 61 61 61 63 62 52 51 52 53 56
58 56 47 52 72 73 73 71 76 76 76 77 76 75 75 76 76 76 77 76 76 76 76 77 77 77 77 76 75 74 74 74 74 73 72 73 73 72 72 72 71 70 69 68 69 69 68 67 67 65 64 65 64 64 63 62 61 66 55 53 51 52 54
65 66 68 71 72 71 69 73 75 74 74 71 72 74 75 76 76 77 76 76 76 76 77 77 77 77 76 75 74 74 74 74 74 72 72 73 72 72 72 71 70 70 69 69 69 68 67 67 66 65 64 64 65 65 67 70 66 64 60 53 51 51 52
71 69 67 67 68 69 69 75 74 72 71 71 74 74 75 76 76 75 75 75 76 76 76 76 76 75 74 73 73 73 73 73 72 72 73 73 72 72 71 70 69 69 68 69 68 67 67 67 66 65 64 64 66 69 69 69 67 62 60 57 52 50 50
70 68 67 67 67 71 71 71 72 72 72 73 75 75 76 76 75 74 75 76 76 75 75 75 74 73 73 72 72 72 72 72 72 72 72 72 72 71 70 70 69 68 68 68 67 67 66 66 65 65 65 66 67 67 68 68 66 63 60 57 53 51 50
69 69 67 68 69 71 71 70 71 71 72 73 75 76 75 76 76 75 75 75 75 75 74 74 73 72 72 72 72 72 71 71 71 71 71 71 71 70 69 68 67 67 67 67 66 66 66 66 65 65 66 67 67 67 67 67 66 64 61 58 56 55 52
69 70 70 71 72 71 71 71 69 69 71 73 75 75 74 73 73 74 74 74 73 73 74 73 72 72 72 71 71 70 70 70 70 70 70 69 69 68 68 68 68 67 66 66 66 66 66 65 65 66 65 66 66 67 66 67 65 63 62 64 62 60 58
64 65 70 71 71 71 71 71 71 72 74 74 74 74 73 73 72 72 73 71 71 72 72 72 71 71 70 70 70 70 69 69 70 69 68 68 68 67 67 67 67 67 67 66 66 66 66 65 66 66 65 65 66 67 66 65 65 63 62 62 62 61 61
65 64 64 65 69 70 72 72 71 71 71 71 72 72 72 71 70 69 70 71 71 71 70 70 69 69 68 67 67 68 69 69 68 67 67 65 61 57 53 55 66 68 63 59 58 61 66 65 67 67 66 66 67 67 65 64 64 64 58 62 57 61 61
65 65 65 65 66 69 70 69 70 69 69 69 69 69 69 69 69 69 69 70 70 70 70 70 69 68 67 67 66 66 66 66 65 66 66 64 60 57 53 49 44 51 64 59 54 49 47 57 67 67 64 66 68 66 65 63 66 54 52 50 51 52 54
65 63 65 65 66 66 67 70 70 69 69 69 69 69 69 69 69 70 69 70 70 70 70 70 68 66 65 65 64 64 64 63 64 66 68 65 63 62 60 57 53 42 42 47 49 47 43 42 45 50 56 68 64 56 46 49 47 48 48 48 48 47 47
66 66 66 67 67 66 68 69 69 69 69 69 69 69 70 69 69 71 70 71 71 71 70 69 68 66 64 63 64 66 66 64 66 66 66 66 66 64 63 61 59 56 45 41 44 43 41 41 42 45 53 56 58 56 55 47 44 44 43 43 42 42 41

ECMWFFLT1_sfc_dewp_033.txt.gz
Dewpoint
47 47 51 52 55 57 59 60 61 61 61 63 64 64 65 66 67 70 71 72 73 72 73 73 73 73 73 73 73 73 74 74 74 73 73 73 72 72 72 71 72 71 71 72 71 71 71 71 71 70 70 71 68 66 65 65 65 68 68 66 68 67 67
47 47 51 54 56 58 59 60 61 61 61 63 64 64 65 66 67 69 71 72 73 73 73 73 73 73 73 73 73 74 74 74 74 74 73 73 73 73 72 71 71 72 72 71 72 71 71 71 71 70 70 71 66 67 66 66 65 67 68 67 68 67 67
48 49 51 53 57 58 60 60 61 61 61 62 64 64 65 66 67 68 70 72 73 73 73 73 73 73 73 74 74 74 74 74 74 73 73 73 73 72 73 72 72 72 72 71 72 71 72 71 71 70 70 68 66 66 67 67 67 67 67 67 68 67 66
50 51 51 53 55 58 59 60 61 61 62 62 63 64 65 66 67 68 70 71 72 73 73 73 73 73 73 74 74 74 74 74 74 73 73 74 73 73 72 73 72 72 72 72 72 71 71 72 70 69 71 67 67 66 66 67 67 68 67 67 66 67 67
51 52 52 52 53 56 58 60 61 61 61 62 64 65 65 66 67 68 69 71 72 73 73 74 73 73 73 74 74 74 74 74 73 73 73 73 74 73 73 73 72 72 72 72 72 72 70 71 70 69 69 67 67 66 66 67 67 68 68 67 66 66 67
51 51 52 52 52 54 56 57 60 60 60 61 63 65 65 66 66 67 68 71 72 73 73 74 74 74 73 73 74 74 74 74 74 73 73 73 73 73 73 72 72 72 72 72 72 71 70 69 70 69 68 66 67 66 66 66 67 67 68 67 66 67 66
50 51 51 51 52 52 55 57 59 60 60 62 64 65 65 65 66 66 68 70 71 72 73 74 74 73 73 74 74 74 74 74 73 73 73 73 73 73 73 73 72 72 71 72 72 71 70 69 68 69 68 66 67 66 66 66 66 67 67 68 66 66 66
48 50 50 51 50 51 54 58 60 60 61 63 64 65 65 65 66 66 67 68 70 72 73 73 74 74 73 73 73 73 73 73 73 73 73 72 72 72 72 72 72 72 72 71 71 71 70 69 68 69 68 66 66 66 66 66 66 66 66 67 67 66 67
49 50 50 50 50 51 54 58 59 61 62 63 64 65 65 65 65 66 66 68 69 71 72 73 73 74 73 73 73 73 73 74 73 74 73 72 72 72 72 72 72 72 71 72 71 71 70 69 68 68 67 67 66 66 66 66 66 66 66 66 67 66 66
50 50 51 51 51 53 56 58 59 61 63 63 64 65 65 65 65 66 66 67 68 69 71 72 73 74 74 73 73 73 73 73 74 73 73 72 72 72 72 72 72 72 72 72 71 71 70 70 69 68 68 67 67 66 66 66 66 66 66 66 66 66 66
50 51 53 53 52 53 56 58 59 60 63 64 64 65 65 66 66 65 65 66 67 68 70 72 73 73 74 73 73 73 73 73 73 73 73 73 72 72 72 72 72 72 72 72 71 71 70 70 70 68 68 67 67 66 66 66 66 66 66 66 66 66 66
50 52 53 53 53 54 55 58 60 61 64 65 65 65 66 66 66 66 65 65 66 67 69 71 72 73 74 73 73 73 73 73 73 73 73 73 72 72 71 71 72 72 72 72 71 71 71 70 70 69 68 67 67 67 66 66 66 66 66 66 66 66 66
52 54 55 53 54 55 57 61 61 63 64 66 66 66 67 67 66 66 66 65 65 67 69 71 72 73 74 74 73 73 73 73 73 73 73 73 72 72 72 71 71 72 72 72 71 71 70 70 70 70 69 68 67 67 66 66 66 66 66 67 67 66 66
58 53 53 52 53 55 58 61 62 63 63 64 66 67 68 67 67 66 66 65 65 67 68 70 72 73 73 74 73 73 73 73 73 73 73 73 72 72 72 71 71 72 72 72 72 71 71 70 70 70 69 69 68 67 67 67 66 66 66 66 67 67 66
53 53 52 52 55 58 59 60 61 62 63 63 65 66 68 68 68 67 67 66 66 67 68 70 72 72 73 73 73 72 73 73 73 73 73 73 73 72 72 71 71 71 72 73 72 72 71 71 70 70 69 69 68 67 67 67 67 67 66 66 67 66 67
53 52 53 52 55 58 60 60 61 62 63 65 65 66 67 68 68 68 67 67 66 67 68 70 71 72 72 73 73 72 73 73 73 73 74 74 73 73 72 72 71 71 72 73 72 72 71 71 71 70 69 69 68 68 67 67 68 66 63 64 66 66 67
56 56 59 61 58 59 60 60 61 63 66 67 67 67 67 69 69 68 68 68 67 67 68 69 71 71 72 72 73 73 73 73 73 73 73 74 73 73 73 72 72 72 72 73 73 72 72 72 71 70 69 69 68 67 67 67 67 63 62 62 64 66 66
60 60 62 62 61 60 63 66 66 67 68 68 68 68 68 69 69 69 68 68 68 67 68 69 70 70 71 72 73 73 73 73 73 73 73 73 74 73 73 73 73 72 73 73 73 72 72 72 71 70 70 69 68 68 67 67 64 61 61 62 62 64 66
58 60 62 62 62 62 63 67 68 68 68 69 69 68 68 69 69 69 69 69 68 68 67 69 69 70 71 72 73 74 74 74 73 73 73 73 74 74 74 73 73 73 73 73 73 73 72 72 71 71 70 69 68 67 67 67 63 60 60 61 61 62 65
46 47 60 61 61 63 64 68 70 70 69 69 69 69 69 70 70 70 69 69 69 67 67 68 69 69 70 72 73 74 74 74 74 74 73 74 74 74 74 74 73 74 74 74 74 73 72 72 72 71 70 69 68 68 67 67 61 59 59 60 60 61 64
54 51 50 60 63 62 63 65 68 70 70 70 69 69 69 69 70 70 70 70 69 67 67 68 69 69 70 72 73 74 74 74 74 74 74 74 74 75 75 74 74 74 74 74 74 73 73 72 72 71 70 69 68 67 67 67 60 58 58 58 58 60 63
44 49 54 55 60 62 63 63 66 68 69 70 70 70 69 69 70 70 70 71 70 68 67 69 69 69 70 71 73 74 75 75 75 75 75 75 75 75 75 75 75 74 74 73 74 74 73 73 72 71 69 69 68 67 67 67 59 58 58 57 58 59 64
37 39 41 53 59 62 64 64 65 67 69 70 70 70 70 70 70 71 70 71 71 70 69 71 70 70 70 71 73 74 75 75 75 76 75 75 75 75 75 75 74 74 73 73 73 73 72 71 70 69 69 68 68 67 67 65 59 57 56 57 57 59 64
23 28 33 46 61 63 67 68 68 68 69 70 70 70 71 71 71 71 71 71 71 71 70 72 71 71 71 72 74 75 76 76 76 76 75 75 75 74 74 74 74 74 73 72 72 72 72 70 69 68 68 67 67 66 65 64 58 55 55 56 56 60 65
25 21 26 28 52 62 65 66 67 68 70 70 70 71 71 71 71 71 71 71 71 71 70 72 72 72 72 73 75 76 76 76 76 76 75 75 75 74 74 74 74 73 72 71 71 70 70 69 68 68 67 67 66 66 64 64 59 53 54 55 55 60 64
49 50 48 37 33 42 62 66 67 66 69 70 71 71 72 72 71 71 71 71 71 71 70 72 73 73 73 74 76 76 76 76 76 75 75 74 74 74 74 73 73 73 72 71 70 68 68 67 67 66 65 65 64 64 64 64 61 58 53 54 54 57 64
53 54 62 64 57 58 44 65 67 68 69 71 71 72 72 72 71 71 71 72 72 71 71 72 74 74 74 76 76 76 76 76 75 75 74 74 74 73 73 72 72 72 71 69 68 67 66 66 65 64 64 64 64 63 64 64 61 59 52 52 53 55 59
68 69 72 72 72 69 60 40 62 69 70 72 72 72 72 72 71 71 72 72 72 71 72 74 75 75 76 76 76 75 75 75 74 74 74 73 73 72 71 71 71 70 69 68 67 66 66 65 65 64 63 63 63 63 63 64 62 59 53 52 52 53 55
65 65 68 69 69 68 68 72 70 70 71 72 72 72 72 72 71 72 72 72 72 73 74 76 76 76 76 76 75 74 74 74 73 73 73 72 71 71 70 70 69 68 68 68 67 66 65 65 65 64 64 64 63 62 62 63 64 59 58 52 50 51 52
64 63 65 66 66 68 69 71 72 73 73 73 73 73 73 73 72 73 73 73 74 75 76 76 76 76 75 74 74 74 73 73 72 72 72 71 70 70 69 69 68 68 68 67 67 66 65 65 65 64 63 63 63 63 65 64 62 60 58 56 52 50 50
64 64 64 65 66 67 66 66 66 67 68 72 74 74 74 74 73 73 73 75 75 76 76 76 75 75 74 74 73 73 72 72 72 72 71 70 70 69 68 68 67 66 66 66 66 66 65 65 64 63 63 63 63 65 66 65 64 63 61 57 53 51 50
64 64 64 65 66 67 67 67 68 67 69 72 76 76 75 75 74 73 75 76 75 76 76 75 74 73 73 73 72 72 71 71 71 71 70 70 69 68 68 67 66 66 66 66 66 65 65 64 64 63 63 64 65 66 65 64 63 61 59 60 57 55 52
64 64 64 64 65 66 67 68 68 67 67 70 72 75 76 75 76 75 75 75 76 75 74 73 72 71 71 71 71 70 70 70 70 70 69 69 68 68 67 66 66 66 65 65 65 65 65 64 64 64 64 65 66 66 65 64 63 61 59 58 57 56 56
63 64 65 65 65 66 66 66 65 65 65 65 67 69 69 70 71 71 73 74 74 73 72 71 71 71 71 70 69 69 70 70 71 69 68 68 67 67 66 66 66 65 65 65 65 65 65 64 64 64 64 65 66 65 65 64 63 62 61 60 58 57 56
62 63 64 64 65 65 64 64 64 65 66 66 67 68 69 69 70 71 72 72 73 72 71 71 69 69 69 69 68 68 68 68 67 65 61 58 55 52 51 60 66 64 60 57 55 62 65 65 65 65 66 66 66 65 65 64 64 63 59 61 56 58 59
62 62 62 64 64 64 66 66 64 65 65 66 66 67 68 68 69 69 70 70 71 70 69 69 69 68 68 68 68 67 67 66 64 63 61 59 57 56 53 49 46 57 61 58 53 50 49 59 65 66 66 66 65 63 65 64 65 58 53 51 51 52 53
63 62 62 63 63 63 63 65 67 66 66 67 67 68 69 68 70 69 69 70 70 69 68 67 67 67 67 67 66 66 66 65 64 62 61 60 59 59 57 56 53 43 43 48 49 46 45 47 52 57 61 64 62 53 48 51 52 51 49 49 49 49 50
65 64 64 65 65 65 65 66 65 65 65 65 66 68 68 68 68 68 69 68 68 68 68 66 66 66 66 66 65 65 65 65 64 63 62 61 60 59 59 58 56 56 47 43 44 44 42 42 45 50 54 56 57 56 56 50 48 48 48 48 48 48 48

ECMWFFLT1_sfc_dewp_036.txt.gz
Dewpoint
50 50 50 51 51 53 55 57 58 58 59 60 61 61 63 64 66 68 69 69 69 70 71 71 70 71 71 71 72 72 71 71 71 71 71 71 71 70 70 70 71 72 72 72 72 72 71 72 71 71 70 70 69 69 67 66 66 66 66 66 65 65 65
49 51 51 52 52 53 54 57 58 58 58 60 61 62 62 64 66 67 69 69 69 69 71 71 71 71 71 71 71 72 72 71 72 72 72 72 72 71 71 70 71 71 71 71 71 72 71 71 71 70 70 70 69 69 66 64 66 65 65 66 65 65 65
48 50 52 52 53 53 54 55 58 58 58 59 61 62 62 64 65 67 68 69 69 69 70 71 72 71 71 71 71 71 72 72 72 72 72 72 72 72 71 71 71 71 71 71 71 71 71 71 71 70 70 70 70 68 66 63 65 66 65 65 66 65 65
48 49 51 53 54 54 55 55 57 58 58 59 61 62 62 64 65 66 68 69 70 70 70 71 71 72 71 71 71 71 72 72 72 72 72 72 72 72 72 71 71 71 71 71 71 71 71 70 70 70 71 70 70 68 66 63 63 66 66 66 66 65 65
48 48 50 52 53 54 55 55 57 58 58 59 61 62 63 64 65 66 68 69 70 70 70 71 71 72 72 72 71 71 71 72 72 73 73 72 72 72 72 71 71 71 71 71 71 71 71 70 70 70 70 70 69 68 66 64 63 65 66 66 65 65 65
47 48 49 51 52 54 55 56 56 58 58 59 60 62 63 64 65 66 67 69 70 70 71 71 71 72 72 72 72 72 72 72 72 73 73 73 72 72 72 72 71 71 71 71 71 71 71 70 70 70 69 70 68 67 66 64 64 64 66 66 65 66 65
46 47 48 50 52 53 55 56 57 58 59 59 61 63 63 63 64 65 67 69 70 71 71 71 71 72 72 72 72 72 72 72 72 73 73 73 73 72 72 72 71 71 71 71 71 71 71 70 70 70 69 69 68 66 65 65 64 65 65 65 65 65 65
46 47 48 49 51 52 54 56 58 58 59 60 61 62 63 63 64 65 67 68 70 71 71 71 72 72 72 72 72 72 72 72 72 73 73 73 73 72 72 72 72 71 71 71 71 71 70 70 70 70 69 69 68 66 65 65 65 64 65 65 64 64 65
46 48 48 48 49 51 53 56 58 59 60 61 61 63 63 64 64 65 66 68 70 70 71 71 72 72 72 72 72 72 73 73 73 73 73 72 72 72 72 72 72 72 71 71 71 71 70 70 70 70 69 68 67 66 65 65 65 65 65 65 64 64 65
47 48 49 49 49 50 53 55 58 60 61 61 62 63 63 64 64 65 66 67 69 70 71 71 72 72 72 72 72 72 73 73 73 73 72 72 72 72 72 72 72 72 71 71 71 71 71 70 70 70 69 68 67 66 65 65 65 65 65 65 65 64 64
48 49 50 50 50 51 52 55 58 60 61 61 62 63 64 64 64 65 65 66 68 69 71 71 72 72 72 72 72 72 72 73 73 73 72 72 72 72 72 72 72 72 71 71 71 71 71 70 69 69 69 68 67 66 66 65 65 65 65 65 66 65 65
49 50 51 50 51 51 52 55 58 60 61 62 62 63 64 64 64 65 65 66 67 69 70 71 72 72 72 72 72 72 72 73 73 72 72 72 72 71 71 72 72 72 72 71 71 71 71 70 70 69 68 68 67 67 66 66 65 65 65 65 65 66 65
48 50 50 51 52 52 54 57 58 60 61 61 62 63 64 64 64 64 65 66 67 68 70 71 72 72 72 72 72 72 72 72 72 72 72 72 72 72 71 71 71 71 72 71 71 70 70 70 70 69 68 68 68 67 66 66 66 65 65 65 65 65 66
55 49 50 51 52 53 55 57 59 60 61 61 62 63 64 64 64 65 65 66 66 67 69 71 71 72 72 72 72 72 72 72 72 72 72 72 72 72 71 71 71 71 72 72 71 71 70 70 70 69 69 68 67 67 67 66 66 66 66 66 66 65 66
47 48 50 51 52 53 55 56 58 59 61 62 62 63 64 65 65 65 65 66 66 67 68 70 71 72 72 72 72 72 72 72 72 72 72 72 72 72 72 71 71 71 71 72 71 71 71 70 70 70 69 68 68 67 67 66 66 66 66 66 66 66 66
46 48 49 50 52 52 54 56 58 59 60 62 63 63 64 65 65 65 65 65 66 67 68 70 71 71 72 72 72 72 72 72 72 72 72 72 72 72 72 71 71 71 71 71 71 71 71 71 70 70 69 69 68 67 67 67 67 65 62 64 66 66 66
49 49 49 51 52 53 54 56 58 60 61 62 64 64 64 65 66 66 65 66 66 66 67 69 70 71 71 72 72 73 72 72 72 72 72 72 72 72 72 72 72 71 71 71 71 71 71 71 70 70 70 69 69 68 67 67 67 62 61 62 63 65 66
50 50 50 50 52 53 55 57 58 60 61 62 64 65 65 66 66 66 66 66 66 66 67 68 69 70 71 72 72 73 73 72 72 72 72 72 72 72 72 72 72 71 71 71 71 72 71 71 71 70 70 70 69 68 68 67 64 60 60 61 62 63 66
52 53 53 54 55 56 56 57 59 61 61 62 63 65 65 66 66 66 66 66 66 66 67 68 68 70 71 71 72 72 73 72 72 72 72 72 72 72 72 72 71 71 71 71 71 72 71 71 71 70 70 70 69 69 68 68 62 60 60 61 61 61 64
54 53 53 53 54 56 57 59 60 61 61 62 63 64 66 67 67 67 67 67 67 66 67 67 68 69 70 71 72 72 73 73 72 72 72 72 72 72 72 72 71 71 71 71 71 71 72 71 71 71 70 70 69 69 68 68 61 59 59 60 60 61 63
55 55 55 55 55 55 56 58 59 60 61 62 62 63 65 67 67 67 67 67 67 67 67 67 68 69 70 71 71 72 72 72 72 72 72 72 72 72 72 72 72 71 71 71 71 71 72 71 71 71 71 70 70 69 68 68 59 58 58 58 58 59 61
54 54 53 55 55 55 56 57 58 58 60 62 64 64 64 66 67 68 68 68 67 67 67 67 68 68 69 70 71 72 72 72 72 72 72 72 72 72 72 72 72 72 72 71 71 72 72 72 72 71 71 70 70 69 68 68 58 58 58 58 58 59 63
45 50 50 53 58 61 61 59 59 60 61 62 64 64 65 65 66 68 68 68 68 68 67 67 67 68 69 70 71 71 72 72 72 72 72 72 72 72 72 72 72 72 72 72 72 72 72 72 72 72 71 70 70 69 69 68 59 57 57 57 57 59 64
47 42 39 47 56 59 61 62 63 64 65 64 65 66 66 66 67 67 68 68 69 68 67 67 67 68 69 69 70 71 72 72 72 72 72 72 72 72 72 72 73 72 73 72 72 72 72 72 72 71 71 70 69 69 68 68 61 56 56 56 56 60 64
63 60 54 43 51 57 61 63 63 63 66 68 68 68 69 68 68 68 68 68 69 68 68 67 67 67 68 69 70 71 71 72 72 72 72 72 72 72 72 73 73 73 73 73 73 73 72 71 71 70 70 69 69 69 68 67 62 55 56 55 55 60 65
64 64 66 68 66 57 59 63 65 65 64 66 68 69 70 69 69 69 69 69 69 68 68 67 67 68 68 69 69 70 72 72 72 73 72 72 72 72 73 73 74 73 73 73 73 72 71 70 69 69 68 68 68 68 68 66 63 59 54 54 54 57 65
64 64 65 67 67 68 58 60 65 64 64 64 67 69 70 70 69 69 69 69 69 68 68 68 68 68 68 69 69 70 72 73 73 73 73 73 73 73 74 74 73 73 72 72 71 70 69 69 68 67 67 67 67 67 66 65 62 59 53 53 53 56 60
64 64 65 67 68 67 68 69 65 63 66 67 67 69 70 70 69 69 69 69 69 69 69 69 68 68 68 69 69 71 72 73 73 73 74 74 74 74 74 74 73 72 71 71 70 69 68 67 67 66 65 64 64 65 65 64 61 60 53 53 53 54 58
64 64 64 65 66 67 67 66 67 68 68 69 68 70 70 70 70 69 69 69 69 70 70 70 69 69 70 70 70 71 72 73 73 74 74 74 74 74 73 73 72 71 70 69 69 68 67 66 65 64 63 63 63 63 63 63 62 57 57 53 52 53 55
64 64 64 64 65 66 68 66 66 68 69 70 70 70 71 71 70 70 69 70 70 70 70 70 71 71 71 70 71 72 73 74 74 74 74 74 74 73 72 72 70 69 69 68 68 67 65 65 64 64 63 62 62 62 62 62 61 57 56 56 52 52 53
64 64 64 64 64 65 66 67 66 67 67 68 69 70 69 71 71 71 70 71 72 72 72 72 72 72 72 72 73 73 74 74 74 74 74 73 73 72 71 70 69 68 67 67 66 66 65 64 64 63 63 63 62 62 62 62 61 59 58 55 53 52 52
63 64 64 64 64 65 66 67 67 67 66 66 67 69 69 70 70 71 71 73 73 73 73 73 73 73 73 73 74 74 74 74 74 73 73 72 72 71 70 69 68 67 67 66 66 65 65 64 63 63 63 62 63 63 63 62 62 60 59 58 56 55 53
62 63 63 63 64 64 64 64 65 65 65 65 66 68 69 69 69 69 70 70 72 73 73 72 73 73 74 74 74 74 74 73 72 72 71 71 70 69 68 68 67 67 66 66 65 65 64 63 63 63 62 62 63 64 63 62 62 61 60 59 58 57 56
61 62 62 63 64 64 64 64 65 66 66 66 67 68 68 68 68 68 69 69 70 70 70 70 70 72 73 73 73 73 73 72 72 70 69 69 68 67 67 67 67 66 66 65 65 64 64 63 63 63 62 63 64 64 63 63 62 61 60 59 58 58 56
62 62 62 63 63 64 65 65 65 65 65 66 67 68 67 67 67 67 68 68 69 68 67 67 66 67 70 72 73 71 71 71 70 69 68 66 62 62 65 66 66 66 64 63 65 65 64 64 63 63 64 64 64 64 63 63 62 62 57 59 55 56 56
62 63 64 64 64 64 64 65 65 64 64 64 66 67 67 67 68 68 69 68 68 67 66 66 66 66 67 67 67 67 67 67 67 65 63 62 59 58 55 50 45 55 64 61 55 55 59 58 64 64 65 65 65 65 64 63 63 57 52 50 49 49 50
61 62 64 64 64 64 63 64 65 64 64 63 65 66 67 67 67 68 68 67 68 67 66 66 66 66 66 66 66 65 65 65 65 65 64 62 61 60 58 57 53 43 43 48 51 49 49 52 53 57 60 64 64 57 53 58 53 48 47 47 47 47 48
59 60 62 64 65 65 64 64 64 64 64 63 64 65 66 66 67 67 67 67 67 67 66 66 66 65 65 65 65 64 64 65 64 63 62 61 61 61 60 59 57 55 45 42 45 45 44 48 51 52 54 56 59 57 56 51 47 47 46 46 46 46 46

ECMWFFLT1_sfc_dewp_042.txt.gz
Dewpoint
51 53 54 55 56 57 58 58 58 58 59 60 60 61 61 63 65 66 67 67 68 68 69 69 70 70 70 71 71 71 71 71 71 71 71 70 71 71 71 71 71 71 72 72 73 73 74 74 74 74 74 74 74 73 72 71 70 69 68 67 67 66 66
48 50 52 53 54 55 57 58 58 58 58 59 60 61 61 62 64 65 66 67 68 68 68 69 70 70 70 71 71 71 71 71 71 71 71 71 71 71 71 71 71 71 71 72 73 73 74 74 74 74 74 74 73 73 72 71 70 69 68 67 66 66 66
46 48 50 52 53 54 56 57 58 58 58 58 58 59 61 62 64 65 66 66 67 68 68 69 69 70 70 71 71 71 71 71 71 71 71 70 70 70 71 71 71 71 71 72 73 73 74 74 74 74 74 73 73 73 72 71 70 69 68 67 67 66 65
45 46 48 51 52 53 55 56 57 57 57 57 57 58 60 62 63 64 65 66 66 67 68 68 69 69 70 70 70 71 71 71 71 71 71 71 71 71 71 71 71 71 71 71 72 73 73 74 74 74 74 73 73 73 72 71 70 69 68 68 67 67 66
45 45 46 48 50 51 53 54 56 57 56 56 57 59 60 61 62 63 64 65 65 66 67 68 68 69 70 70 70 70 71 71 71 71 71 71 71 71 70 70 70 70 71 71 73 73 73 73 73 73 73 73 73 72 72 71 70 69 69 68 67 67 66
45 46 46 46 48 49 51 53 54 55 55 56 56 58 59 59 60 61 63 65 65 66 67 68 68 69 70 70 70 70 71 71 71 71 71 71 71 71 70 70 70 70 70 71 72 73 73 73 73 73 73 73 72 72 71 71 70 69 69 67 67 67 66
45 47 47 47 47 48 49 51 52 54 55 56 56 57 58 58 59 60 62 64 65 65 66 66 67 68 69 70 70 71 71 71 71 71 71 71 71 71 71 71 71 70 71 71 72 72 73 73 73 73 73 72 72 72 71 71 70 69 68 68 67 67 66
45 46 48 48 47 46 47 50 52 53 55 56 56 56 57 58 59 60 61 63 64 64 65 66 67 68 69 70 70 70 70 71 71 71 71 71 71 71 71 71 71 71 71 71 71 72 72 72 72 73 73 72 72 72 71 71 70 69 68 68 67 67 66
45 47 47 48 48 47 47 49 50 52 55 56 56 57 57 58 59 60 61 62 64 64 65 65 66 67 69 69 70 70 70 71 71 71 71 71 70 70 70 71 71 71 71 70 70 72 72 72 72 72 72 72 72 72 71 71 70 69 68 67 67 67 66
45 46 48 49 50 49 50 49 51 53 55 56 57 58 58 58 60 60 61 62 63 64 65 65 66 67 68 69 69 70 70 71 71 70 70 70 70 70 70 70 71 71 71 70 70 71 72 72 72 72 72 72 72 71 71 71 70 70 68 67 67 67 67
45 48 49 49 51 51 52 50 51 54 54 56 57 57 58 59 59 60 61 61 62 63 64 65 66 67 67 68 68 69 70 70 70 70 70 70 70 70 70 70 70 71 71 71 70 71 71 71 72 72 71 71 71 71 71 70 70 70 69 68 67 67 66
47 48 49 49 50 52 52 53 53 54 55 56 56 57 59 59 59 60 61 62 62 63 65 65 66 67 67 68 68 69 70 70 70 70 70 70 70 70 70 70 71 71 71 71 71 71 71 71 71 71 71 71 71 71 71 71 70 70 69 68 67 67 66
45 47 48 48 50 51 54 55 55 55 55 54 55 57 58 58 59 59 61 62 62 63 65 66 67 67 67 68 68 69 69 70 70 70 70 71 71 71 71 71 71 70 71 71 71 70 70 70 71 71 71 71 71 71 71 71 70 70 69 69 68 67 66
52 47 47 50 52 53 53 54 55 55 56 55 55 57 57 58 59 60 61 61 62 63 64 65 67 67 68 68 69 69 69 70 70 70 70 71 71 71 71 71 71 71 71 71 71 71 70 70 70 71 71 71 71 71 71 70 70 70 69 69 68 67 67
40 43 46 48 51 53 53 53 55 56 56 56 56 56 57 58 59 61 62 62 63 62 64 66 67 67 67 68 69 69 70 70 70 70 71 71 71 71 71 71 72 72 72 72 71 71 71 71 71 71 71 71 71 71 70 70 70 69 69 69 68 68 67
40 41 43 46 49 51 53 53 54 56 56 57 57 57 57 58 60 60 61 62 62 63 64 66 67 68 68 68 69 69 70 70 71 71 71 71 71 71 71 71 72 72 72 72 71 72 72 71 71 71 70 70 70 70 70 70 70 67 63 64 68 68 67
38 40 42 46 49 50 52 53 54 55 57 58 58 58 58 59 60 61 60 61 62 64 64 65 67 68 68 68 69 69 70 70 71 71 71 71 71 71 71 71 72 72 72 72 72 72 72 72 71 70 70 70 70 70 70 70 69 64 62 62 63 67 67
41 41 41 42 47 51 52 52 53 54 55 56 58 59 59 60 60 61 61 62 63 63 64 66 67 67 68 68 69 69 70 70 71 71 71 71 71 71 71 71 71 72 72 72 72 72 72 71 71 71 71 71 70 70 70 70 65 62 61 61 61 63 67
45 43 43 47 50 52 51 50 51 54 54 56 57 58 59 60 60 62 62 63 64 65 65 66 67 67 68 68 69 70 70 70 71 71 71 71 71 71 72 71 71 71 71 71 72 72 72 72 71 71 71 71 70 70 70 70 65 62 60 61 60 60 63
50 50 50 50 49 49 52 53 53 54 55 58 59 58 60 61 61 62 63 63 65 65 66 67 67 68 68 69 69 70 70 70 71 71 71 71 72 72 72 72 71 71 72 72 72 72 72 71 71 71 71 71 71 70 70 70 64 61 60 60 59 60 62
54 55 55 55 53 51 53 55 56 56 57 57 57 59 61 62 62 63 64 65 65 65 66 67 67 68 68 69 69 70 70 71 71 71 71 71 72 72 72 72 72 72 72 71 71 71 71 71 71 71 71 71 71 70 70 70 63 59 58 58 58 59 60
63 63 62 61 58 56 56 55 56 55 56 59 60 61 61 61 62 63 64 65 65 65 66 67 67 68 69 69 70 70 71 71 71 71 71 71 72 72 72 72 72 72 72 72 71 72 71 72 71 71 71 71 71 70 70 70 61 59 58 57 57 58 64
63 64 65 65 65 62 60 59 58 58 62 61 61 61 62 62 64 64 65 65 65 66 66 67 67 67 68 69 69 70 71 71 71 71 71 72 72 72 72 72 72 72 72 72 71 71 71 71 71 71 71 71 71 71 70 70 63 58 57 56 56 59 65
64 65 65 66 66 67 66 64 62 62 60 61 62 64 65 64 64 65 65 65 66 66 66 66 66 67 68 69 69 70 71 71 71 71 71 71 71 71 71 72 72 72 72 72 71 71 71 71 71 71 71 71 71 70 70 70 64 57 56 55 56 61 66
64 64 65 65 66 66 66 66 64 64 63 62 62 64 65 65 65 65 65 66 66 66 65 66 66 67 67 68 69 70 71 71 72 72 71 71 71 71 71 72 72 72 72 72 72 71 72 71 71 71 71 71 70 67 69 70 65 56 56 55 55 61 67
63 64 64 65 66 67 67 67 67 66 65 64 64 65 65 65 65 65 65 66 65 65 65 66 66 67 67 68 69 70 71 71 72 72 72 71 72 72 72 72 72 72 72 72 72 71 71 71 71 71 71 71 70 70 70 70 70 61 55 54 55 58 67
64 64 64 65 65 67 66 66 67 67 67 68 68 68 66 66 65 66 66 66 66 66 66 66 68 68 69 69 69 69 70 71 71 71 71 72 72 72 72 72 72 72 72 71 71 71 71 71 71 70 71 71 71 71 71 70 70 62 54 54 54 56 61
64 64 64 65 66 66 66 66 66 67 67 67 68 69 68 67 66 66 67 67 66 67 67 68 68 68 68 68 68 69 70 70 71 72 71 72 72 72 72 72 72 72 72 71 71 71 71 71 71 71 70 71 71 71 71 69 66 65 55 54 53 54 57
63 63 63 64 64 65 66 65 65 65 66 67 68 68 69 69 67 67 68 67 68 69 70 70 69 69 68 68 68 69 69 70 71 71 72 72 72 72 72 72 72 72 72 72 71 71 71 71 71 71 71 71 71 71 72 72 69 61 60 54 53 53 55
63 63 64 64 65 65 66 65 65 66 66 67 67 68 68 68 69 69 68 68 70 70 70 71 70 70 69 68 68 68 69 69 70 71 71 72 72 72 72 72 72 72 72 72 71 71 71 71 71 71 70 70 70 71 71 71 70 61 59 58 53 52 54
63 64 64 64 64 65 66 65 65 66 66 67 67 67 67 68 68 68 68 68 69 70 71 70 70 70 69 69 68 68 69 69 70 70 71 71 72 72 71 72 72 72 72 72 71 71 71 71 71 70 70 70 70 70 69 69 69 67 62 58 54 53 53
64 64 64 64 64 65 64 65 65 65 66 66 66 67 67 67 67 67 67 68 69 70 71 71 70 70 70 69 69 69 69 69 69 70 70 71 71 71 71 71 71 71 72 71 71 71 71 71 70 70 70 70 70 69 68 67 67 65 63 59 56 55 54
64 64 64 64 64 64 64 64 64 64 65 65 66 66 66 66 67 67 67 68 69 70 70 71 71 70 70 70 70 70 69 69 68 69 69 70 71 71 71 72 71 71 71 71 71 71 71 70 70 70 69 69 69 68 67 65 65 63 61 60 59 59 57
63 64 64 65 65 65 64 64 63 63 64 65 65 66 66 66 67 67 67 68 68 68 69 69 69 70 71 71 71 70 70 69 69 69 69 69 70 70 71 71 71 71 71 71 71 71 71 70 70 69 69 69 69 67 65 64 64 62 60 59 59 59 60
63 63 64 64 65 65 65 65 64 64 64 64 65 66 66 66 67 67 67 67 68 68 68 68 67 68 69 70 71 72 71 71 70 70 69 69 70 71 71 71 71 71 71 71 72 72 71 71 71 70 70 69 68 66 64 64 63 62 58 59 57 59 61
62 63 64 65 65 65 65 65 65 64 64 63 65 65 66 66 66 67 67 67 67 67 67 67 67 68 68 67 68 69 70 71 72 71 71 71 70 71 71 67 59 66 72 72 67 65 64 64 70 70 70 69 67 66 65 64 64 55 52 51 51 52 55
62 63 64 65 65 65 65 65 65 65 64 64 65 65 66 66 66 66 66 67 67 66 66 66 66 66 65 65 66 66 66 66 67 68 70 72 72 72 71 71 65 53 52 59 65 62 59 57 60 61 63 67 67 63 58 57 52 50 50 48 49 50 50
61 62 63 64 64 65 65 65 65 65 65 65 65 65 65 66 66 66 66 66 66 66 66 65 65 64 64 64 65 64 64 64 63 63 63 64 66 70 71 70 68 65 54 52 56 59 55 55 54 54 56 58 61 61 60 52 50 48 47 48 48 48 48

ECMWFFLT1_sfc_dewp_045.txt.gz
Dewpoint
58 59 60 60 61 61 62 64 65 64 65 66 66 66 65 67 68 70 70 71 72 72 73 73 73 73 73 73 74 74 74 74 74 73 73 73 73 73 74 74 74 74 74 74 75 75 76 77 77 77 77 77 76 76 75 75 75 75 75 75 74 73 72
56 57 58 59 60 61 62 64 65 64 65 65 66 67 65 66 69 69 69 71 72 72 73 73 73 73 73 73 74 74 74 74 74 74 73 73 74 74 74 74 74 75 75 75 75 76 76 77 76 77 77 76 76 75 74 74 75 75 75 74 73 73 72
54 55 57 58 59 60 62 63 64 64 64 64 64 65 65 67 68 69 70 70 71 72 73 73 73 73 73 74 74 74 74 74 74 73 73 72 73 71 73 74 74 74 74 75 75 75 76 76 77 77 77 76 75 75 74 74 75 75 75 74 73 73 72
53 54 56 58 60 61 62 62 63 63 63 63 63 64 65 68 68 69 69 69 70 72 72 72 73 73 73 73 74 74 74 74 74 73 72 72 72 73 73 74 74 74 74 74 74 74 75 76 76 76 77 76 76 75 74 74 74 75 75 74 73 73 72
52 53 54 57 58 60 60 61 62 63 62 61 63 65 66 66 66 67 68 69 69 70 70 71 71 72 73 73 73 73 74 74 74 73 73 73 74 74 74 72 73 73 73 74 74 75 75 76 75 76 76 76 76 75 74 74 74 75 75 74 73 72 71
48 52 54 55 55 57 59 59 59 60 61 60 61 63 63 63 64 63 65 68 68 69 71 71 72 72 73 73 73 73 74 74 74 74 74 74 74 73 73 73 72 73 72 74 73 74 75 75 74 75 75 75 74 74 74 74 74 74 75 74 74 72 71
49 51 52 53 54 55 57 58 58 59 60 60 60 62 62 61 62 63 63 65 67 69 69 69 70 71 72 72 73 73 74 73 74 74 73 74 74 74 73 73 74 73 73 74 73 74 74 74 75 75 75 74 75 74 75 75 74 75 75 74 73 73 72
51 52 53 53 53 53 54 57 58 58 59 61 60 59 60 60 61 62 62 63 65 66 67 67 69 71 72 72 72 73 73 73 73 73 73 73 73 73 73 73 73 74 74 73 74 74 73 74 74 75 75 74 75 75 76 76 76 74 74 74 73 73 72
49 55 53 50 51 49 51 56 57 58 61 62 61 61 60 60 60 61 62 63 64 65 66 66 68 70 72 72 73 73 73 73 73 73 73 73 72 72 72 72 73 73 73 73 72 74 74 74 74 75 76 75 75 76 76 76 76 75 74 74 73 73 72
51 55 57 53 52 49 52 54 58 61 62 62 63 63 61 61 61 61 62 62 63 64 65 66 67 69 71 71 72 72 73 73 73 72 71 71 72 71 71 71 72 73 73 72 72 73 74 74 74 75 76 75 75 76 76 76 75 75 74 74 73 73 72
51 57 59 56 56 56 56 53 57 60 61 63 63 61 63 62 62 61 62 62 62 63 64 66 67 68 69 70 70 71 72 72 72 72 71 71 71 71 70 70 71 72 72 72 72 72 73 74 75 75 75 75 75 75 75 75 75 75 74 74 73 73 72
56 58 60 60 60 59 57 58 60 61 62 63 62 61 63 64 62 61 62 62 62 62 64 65 66 67 69 68 69 71 72 72 72 71 71 71 70 70 70 70 71 71 72 72 71 72 72 73 74 74 75 75 75 75 75 75 75 75 74 73 73 73 72
53 56 58 56 60 61 64 63 61 61 62 61 59 62 62 62 62 61 65 64 62 63 64 66 67 69 68 68 68 71 73 72 72 71 71 72 72 71 71 70 70 71 71 71 71 71 71 71 73 74 74 75 75 74 75 75 75 75 75 74 73 73 72
53 50 53 57 59 60 62 65 64 63 62 62 61 62 61 62 62 64 65 63 63 63 64 66 68 69 69 69 69 72 73 73 73 72 72 72 73 73 72 71 71 72 72 72 72 71 71 71 72 73 73 74 74 75 75 75 75 75 75 74 74 73 72
47 46 51 53 60 62 62 62 65 64 63 63 61 61 62 61 62 64 65 65 65 62 64 66 68 69 69 70 70 72 73 73 73 73 73 73 74 73 73 72 73 73 73 73 72 71 71 71 71 72 73 73 74 74 74 74 74 74 74 74 74 73 72
40 41 43 49 56 57 62 62 63 65 65 65 63 63 60 62 63 63 63 64 64 66 65 68 70 70 69 70 72 72 72 73 74 74 74 74 74 74 74 73 73 73 73 73 73 73 73 73 72 72 72 73 73 74 74 74 74 70 66 67 73 73 72
45 46 48 52 56 56 59 61 63 64 66 66 65 64 62 62 64 63 61 63 63 65 66 66 68 70 70 71 71 72 73 73 73 73 73 74 74 74 74 74 74 74 74 74 74 73 74 73 72 72 72 72 72 73 73 73 73 65 63 64 66 71 73
51 56 53 52 53 54 58 59 61 63 63 63 63 64 64 63 63 63 62 63 65 63 64 66 68 69 71 71 71 72 73 72 73 73 73 74 74 74 74 74 74 74 74 74 74 74 74 73 73 73 72 72 72 72 73 73 67 62 62 63 63 65 72
49 51 54 58 57 58 54 53 56 63 61 61 63 62 61 63 61 65 64 65 66 66 66 68 69 69 71 71 72 72 73 73 73 73 73 74 74 74 74 74 74 74 74 73 74 74 74 74 73 73 73 73 73 72 72 72 65 62 61 62 62 62 66
50 50 53 55 58 58 58 58 57 58 62 65 63 60 64 64 63 65 66 66 69 68 68 68 68 70 70 72 72 73 73 73 73 73 73 73 74 74 74 74 74 74 74 74 74 74 73 73 74 74 74 73 73 73 72 72 65 61 60 60 60 61 64
61 63 65 66 66 64 64 63 62 62 62 60 59 62 64 64 62 64 66 69 69 69 69 69 70 70 71 71 72 73 73 73 73 73 73 74 74 74 74 73 74 74 73 73 73 73 73 73 73 73 73 73 72 72 72 71 62 60 59 59 59 60 61
62 64 65 67 68 69 70 68 65 61 61 60 60 59 62 62 62 62 66 68 68 69 70 70 70 70 71 71 72 72 73 73 73 73 74 74 73 73 73 73 74 74 74 73 72 72 72 73 73 73 72 73 72 71 72 71 61 59 58 58 58 59 66
64 66 66 68 67 67 69 70 69 66 64 63 60 60 61 62 63 64 66 67 67 70 70 70 70 70 71 70 71 72 72 72 72 73 73 73 73 73 73 73 73 74 74 73 72 72 72 73 72 73 73 72 72 72 71 71 64 58 57 57 57 59 68
65 66 66 67 68 68 69 69 68 66 62 62 63 64 67 66 65 69 70 69 70 69 69 69 69 70 71 71 72 72 72 72 72 73 73 73 73 73 73 73 73 73 74 73 72 71 71 71 72 72 72 72 72 71 71 71 65 56 56 57 56 61 69
65 65 66 67 67 68 68 70 69 64 66 66 66 68 70 69 69 67 69 69 69 68 67 68 69 70 70 71 71 72 72 72 72 72 73 73 73 73 73 73 73 74 74 73 72 72 73 72 72 72 73 71 71 68 70 71 64 55 56 56 56 61 70
66 66 66 67 67 68 70 71 71 71 70 69 71 70 70 70 67 67 69 70 67 67 67 69 70 71 71 71 71 72 72 72 73 73 72 73 73 74 73 74 73 73 73 73 72 72 72 72 72 72 72 72 72 72 71 72 72 63 55 56 55 57 70
65 65 66 66 67 68 69 69 69 69 69 70 71 70 69 69 68 68 70 70 69 69 68 70 71 71 71 72 71 71 72 72 73 72 72 73 73 73 73 73 73 73 73 72 72 72 73 72 72 72 72 72 72 72 72 72 72 65 54 55 55 56 62
64 65 65 67 67 67 68 68 69 69 69 70 71 70 69 69 69 70 71 70 70 70 70 71 72 72 72 73 72 71 71 71 73 73 72 73 74 74 74 74 73 73 73 72 73 73 73 73 72 72 72 73 72 73 72 70 67 68 56 55 54 55 58
64 64 65 66 67 67 67 68 68 68 68 68 69 71 71 68 71 71 70 71 73 73 71 71 71 72 72 72 72 72 72 73 73 73 73 74 74 74 74 74 74 74 74 74 73 73 73 73 73 72 72 72 73 73 74 74 72 61 61 54 53 54 56
65 65 65 65 66 66 67 67 67 67 67 68 69 70 71 74 72 72 72 72 72 74 75 72 72 72 72 72 72 72 72 72 73 73 74 75 75 74 74 75 74 74 74 74 73 73 72 72 72 72 71 71 72 73 74 74 73 62 58 58 53 54 55
64 64 65 65 65 66 66 66 66 66 66 67 68 68 69 71 71 71 70 70 71 72 73 75 74 73 72 71 71 72 72 73 73 74 74 74 75 74 74 74 75 74 74 74 73 72 72 72 72 72 72 71 71 72 73 73 73 69 60 56 54 54 54
64 65 65 65 65 66 66 66 66 66 66 66 67 67 68 68 69 69 69 70 71 72 72 74 75 74 73 72 72 72 72 72 71 73 74 74 74 74 74 73 73 73 73 73 72 72 72 72 72 71 72 71 71 72 72 73 73 71 66 59 56 56 55
64 65 65 65 66 66 66 66 65 65 66 66 67 67 67 67 67 68 68 69 69 71 72 73 74 74 74 73 73 73 73 72 71 71 72 73 72 72 73 73 73 73 73 73 71 72 72 71 72 71 71 71 71 72 73 72 73 71 67 64 62 62 60
64 65 65 66 66 66 66 65 65 65 66 65 66 67 67 67 67 68 68 68 69 70 70 71 72 72 73 73 74 73 73 72 72 71 70 71 71 70 71 72 72 72 72 72 71 71 72 72 71 71 71 71 71 72 72 72 71 71 68 65 64 63 63
64 65 65 65 65 65 65 65 65 65 65 65 66 66 66 67 67 67 68 68 69 69 69 69 70 71 71 71 72 72 72 73 73 72 71 71 72 71 72 71 71 72 72 73 73 73 71 71 71 71 71 71 71 71 72 72 71 71 64 67 60 63 64
64 64 65 65 65 65 65 65 65 65 65 65 66 66 66 66 67 66 66 67 68 68 68 68 69 68 69 69 69 69 69 69 69 69 69 70 70 70 71 69 61 66 72 73 67 62 61 62 72 72 71 71 72 72 71 71 71 63 57 56 55 55 56
64 64 64 65 65 65 65 65 66 66 66 66 66 66 66 66 67 67 67 67 67 67 67 67 67 66 66 67 67 68 70 69 69 69 69 68 69 68 69 69 70 60 56 56 57 56 53 51 50 51 55 69 73 72 64 63 62 56 53 53 53 53 53
63 64 65 65 64 65 65 65 66 66 66 66 66 66 67 67 67 67 67 67 68 67 67 66 66 66 65 65 65 66 67 68 68 68 68 68 68 67 67 67 67 69 62 57 55 54 51 51 52 53 53 53 58 67 73 62 55 51 53 52 52 51 51

ECMWFFLT1_sfc_dewp_048.txt.gz
Dewpoint
54 56 59 61 63 62 63 65 67 67 68 69 70 70 70 70 71 72 73 74 75 76 76 76 75 74 74 73 75 75 75 76 76 75 75 74 74 74 74 74 74 75 73 73 74 74 76 76 75 76 77 78 77 77 77 77 75 74 75 76 75 75 75
50 52 56 58 60 62 64 66 67 67 68 68 69 71 70 71 71 72 73 74 75 75 76 75 75 75 74 74 74 75 75 75 76 76 75 75 75 74 74 75 75 75 75 74 74 76 76 76 76 76 77 78 77 78 77 76 76 75 74 75 75 75 75
50 50 54 58 59 61 65 65 67 67 68 67 68 69 70 71 72 73 72 73 74 75 76 75 76 75 74 74 74 75 75 75 75 75 75 74 74 73 74 75 75 74 74 75 75 75 76 76 77 77 77 77 77 77 77 77 76 75 75 75 75 74 75
51 51 53 57 61 63 64 65 66 66 66 67 67 68 70 72 72 72 72 73 74 75 75 75 75 74 74 75 75 75 76 76 76 74 75 74 74 75 74 75 75 75 74 74 74 74 75 76 76 77 78 77 77 77 77 76 76 75 75 75 74 75 75
50 52 52 56 58 61 63 64 65 67 65 65 67 69 70 70 70 71 72 72 72 74 74 74 73 74 74 74 74 75 75 75 75 74 75 75 75 75 74 73 74 74 74 74 75 75 76 76 76 77 77 77 77 77 77 76 75 76 75 75 74 74 74
45 50 52 55 57 59 61 62 63 64 64 64 66 68 68 68 68 68 69 71 72 73 74 74 75 75 75 74 75 74 75 76 76 77 76 75 75 74 74 74 73 74 73 74 74 75 75 75 75 75 75 76 75 75 75 76 75 75 76 75 75 74 73
43 49 53 55 57 58 61 62 61 62 64 63 64 66 66 66 67 67 68 69 70 72 72 72 73 74 75 74 74 75 76 76 76 76 75 75 75 75 75 75 75 73 74 75 74 75 75 75 76 75 76 75 76 75 76 76 76 76 76 75 75 75 75
44 49 55 56 55 56 58 61 61 61 63 64 63 63 64 65 65 66 67 67 68 68 69 70 71 74 74 75 74 74 75 75 75 75 75 75 75 75 74 75 74 75 75 74 75 75 74 76 75 75 75 75 76 76 75 76 77 75 75 75 75 75 75
46 54 55 53 54 53 56 60 62 61 63 64 64 64 64 64 64 65 66 66 67 67 68 68 70 72 74 74 74 75 75 75 75 75 75 74 74 73 72 73 75 75 75 74 73 75 75 75 75 76 76 76 76 77 76 77 77 76 75 75 75 75 74
51 57 59 55 55 52 55 57 61 64 64 65 65 66 64 64 65 65 65 64 65 66 66 67 68 70 73 74 74 74 74 75 74 74 73 73 73 72 72 72 73 75 74 74 73 73 76 75 75 76 77 76 76 77 77 76 76 76 76 75 75 76 76
53 58 59 55 54 54 55 55 60 65 65 68 67 64 65 65 65 64 65 64 64 65 66 67 68 69 71 72 72 72 74 74 74 73 73 72 72 72 71 71 72 73 74 74 73 73 75 76 76 76 77 76 76 77 77 76 77 76 75 75 76 76 75
55 57 60 60 59 58 56 60 62 66 67 68 66 64 67 67 65 64 64 65 64 64 66 67 67 68 70 71 71 73 74 74 73 72 73 72 71 71 71 71 71 72 73 73 73 73 73 75 75 75 76 77 77 77 77 77 77 77 76 75 75 76 75
51 59 64 60 61 60 62 63 63 66 68 65 63 65 65 65 65 64 66 66 64 64 66 68 68 70 69 70 70 73 74 74 73 73 72 73 72 71 71 70 70 70 71 73 73 72 72 72 75 75 76 77 77 76 77 77 77 76 76 76 76 76 75
61 53 58 61 62 63 64 65 65 66 68 66 64 65 64 64 64 65 66 65 65 64 64 65 68 69 69 70 71 73 73 74 74 73 73 73 74 73 72 71 72 72 73 73 73 72 72 71 73 74 75 76 76 77 77 77 77 77 77 76 76 76 75
32 36 57 58 63 65 66 65 68 67 66 66 63 63 64 63 64 66 67 66 66 63 64 67 68 69 69 71 72 73 74 75 75 74 74 74 74 74 73 73 73 73 73 74 73 72 72 72 72 74 75 75 76 76 76 76 76 76 77 76 76 76 75
33 29 30 51 61 62 65 65 67 69 68 68 65 65 62 64 66 64 65 66 65 66 65 67 69 70 70 71 73 74 74 75 75 75 75 75 75 75 75 74 74 74 74 74 73 74 74 74 73 72 73 75 75 76 76 76 76 73 67 69 76 76 75
32 29 28 34 63 62 64 65 65 67 69 69 68 66 65 65 66 65 62 64 65 67 65 65 70 71 71 72 74 74 75 76 76 76 75 75 75 76 75 75 74 75 75 75 75 75 75 74 73 72 72 73 74 75 75 75 75 67 65 66 67 74 75
31 35 33 33 38 57 66 65 66 66 67 66 66 67 66 67 65 64 63 64 66 64 64 65 67 70 73 73 74 74 75 76 76 76 75 75 76 76 76 75 75 75 75 75 75 75 75 74 74 74 73 73 73 73 74 75 69 64 64 65 65 68 75
28 29 31 40 41 62 59 55 59 67 64 63 64 65 65 66 63 66 66 67 68 67 66 67 68 72 73 73 74 75 75 76 76 76 76 76 76 76 76 76 75 75 75 75 75 76 76 75 75 74 74 73 74 73 73 74 66 63 63 63 64 65 69
28 28 29 29 38 54 58 61 61 60 63 66 64 60 66 67 64 65 67 67 68 68 70 69 70 72 73 73 74 75 75 76 76 76 76 76 76 76 76 76 76 76 75 75 76 76 75 75 75 75 75 75 74 75 74 74 65 62 61 62 62 63 66
39 42 45 48 56 55 61 67 69 68 67 62 60 63 64 65 64 64 66 67 67 69 70 70 70 72 73 73 74 74 75 75 75 75 75 76 76 76 76 76 76 76 75 74 74 75 75 75 75 75 75 75 74 74 73 72 63 60 60 60 60 62 64
34 33 35 46 61 70 73 69 69 68 69 67 63 61 62 64 64 61 66 68 69 70 70 71 72 72 73 73 73 74 74 74 74 74 75 75 75 75 75 75 75 76 75 75 74 74 74 75 75 75 75 75 74 73 73 73 62 59 59 59 59 61 69
35 54 63 67 66 66 72 73 72 72 73 71 66 62 61 62 63 63 65 68 68 71 71 71 72 72 73 73 73 73 73 73 74 74 74 75 75 75 75 75 75 76 76 75 74 73 74 74 74 75 73 73 73 73 73 72 66 58 58 58 58 61 71
59 64 63 65 70 69 72 72 72 72 71 69 68 66 65 64 65 66 67 69 69 70 70 69 70 71 73 72 72 73 74 74 74 74 75 75 75 74 74 74 75 75 75 74 74 72 73 73 73 73 73 73 73 71 72 72 66 56 56 57 57 63 72
59 62 67 69 69 68 70 73 73 70 70 69 67 67 67 67 67 65 67 69 69 69 68 68 69 70 71 72 72 73 73 73 74 74 74 75 74 74 74 74 75 75 75 74 74 73 74 73 73 72 73 72 71 67 70 72 66 56 56 56 56 63 73
68 68 68 68 69 70 72 73 73 72 71 69 73 72 70 68 66 67 69 70 67 67 66 68 69 71 71 71 71 72 73 73 75 75 74 74 75 75 75 75 74 74 74 74 74 73 73 72 72 73 73 72 72 71 71 72 74 64 55 55 55 58 72
68 68 68 67 68 70 71 71 72 72 72 73 73 70 70 68 68 68 69 70 69 68 67 69 70 72 72 73 71 71 72 72 73 74 73 74 75 75 74 73 73 74 74 73 73 73 73 73 73 72 73 72 72 73 72 72 72 70 54 55 54 57 63
67 67 67 69 69 70 71 70 72 73 72 73 71 69 70 70 68 69 71 71 69 69 68 70 72 73 73 74 73 71 72 72 74 74 73 74 74 75 75 75 74 74 74 73 74 75 75 75 74 73 72 73 73 74 73 70 66 75 56 55 54 56 57
68 67 67 68 69 69 69 70 71 71 71 69 71 70 69 69 71 72 72 71 71 71 72 72 73 74 74 74 73 73 73 73 74 74 73 73 74 75 75 75 75 75 75 75 75 75 74 74 74 73 72 72 73 72 73 75 74 64 64 54 54 54 56
66 67 66 65 66 68 68 70 70 69 70 70 73 74 73 72 72 73 74 74 75 76 74 74 74 74 74 74 73 73 73 73 73 74 74 74 75 75 75 75 75 75 75 75 74 73 73 72 72 72 71 71 71 72 73 75 73 65 60 61 53 54 54
66 66 66 66 65 67 67 68 69 69 70 70 72 73 74 74 74 74 73 73 74 75 75 75 73 73 73 73 73 73 73 73 74 74 75 75 75 75 74 75 76 74 75 74 74 73 72 72 71 72 72 72 71 71 72 72 73 74 67 58 55 54 54
66 66 66 67 67 68 68 68 69 69 70 70 70 71 71 72 72 72 72 73 73 74 75 75 75 74 73 73 73 73 73 72 72 74 75 74 74 75 75 75 74 73 73 73 72 72 72 72 71 71 72 72 72 72 72 73 73 74 73 61 58 56 55
66 67 67 67 68 68 69 68 67 68 69 69 69 69 69 70 70 71 71 72 72 73 74 75 74 74 75 74 73 74 74 73 71 71 72 74 72 72 73 73 72 72 72 72 72 71 71 72 72 72 71 71 71 72 73 74 72 73 73 70 66 63 61
66 66 67 67 67 67 68 68 68 68 68 68 68 68 69 69 69 70 70 70 71 72 73 74 74 74 74 73 73 73 73 72 72 72 71 70 71 70 70 71 71 71 72 72 72 72 71 72 71 71 71 70 71 71 72 72 72 72 72 71 69 67 66
66 66 67 67 67 67 67 67 67 67 67 67 67 68 68 68 68 69 69 69 70 71 71 72 73 73 74 73 73 73 74 75 74 73 71 71 72 71 73 74 73 74 75 75 75 73 72 73 73 74 74 73 72 72 70 71 71 72 64 73 62 66 67
65 66 66 66 67 67 67 67 67 67 67 67 67 67 67 67 67 68 68 69 70 70 70 70 70 70 71 71 71 72 72 72 72 73 73 73 72 72 72 69 61 67 70 71 65 59 54 58 69 70 68 69 70 72 72 71 72 62 57 57 55 56 58
65 66 66 66 66 67 67 67 67 67 67 67 67 67 67 67 67 67 68 68 68 69 68 69 68 68 68 67 68 69 69 70 70 70 70 70 70 70 69 69 73 57 56 60 60 56 51 49 50 50 52 64 67 66 60 59 57 55 56 54 51 53 54
65 65 66 66 66 66 66 66 66 66 66 67 67 67 68 67 67 67 67 67 68 68 68 68 67 67 66 66 67 67 68 68 69 68 67 67 67 67 66 63 65 68 60 57 58 55 50 49 48 47 47 48 53 57 64 58 53 53 54 55 52 51 52